Time,TemperatureF,DewpointF,PressureIn,WindDirection,WindDirectionDegrees,WindSpeedMPH,WindSpeedGustMPH,Humidity,HourlyPrecipIn,Conditions,Clouds,dailyrainin,SoftwareType,DateUTC
2013-12-03 00:01:00,35.5,33.1,28.98,ESE,119,5.0,11.0,91,0.00,,,0.00,WUHU216DAVISVP2,2013-12-03 05:01:00,
2013-12-03 00:02:00,35.5,33.1,28.98,SE,125,2.0,11.0,91,0.00,,,0.00,WUHU216DAVISVP2,2013-12-03 05:02:00,
2013-12-03 00:06:00,35.5,33.4,28.98,SE,129,3.0,11.0,92,0.00,,,0.00,WUHU216DAVISVP2,2013-12-03 05:06:00,
2013-12-03 00:09:00,35.5,33.4,28.99,SE,142,9.0,11.0,92,0.00,,,0.00,WUHU216DAVISVP2,2013-12-03 05:09:00,
2013-12-03 00:11:00,35.5,33.4,28.99,SE,142,5.0,11.0,92,0.00,,,0.00,WUHU216DAVISVP2,2013-12-03 05:11:00,
2013-12-03 00:14:00,35.5,33.4,28.99,ESE,116,4.0,11.0,92,0.00,,,0.00,WUHU216DAVISVP2,2013-12-03 05:14:00,
2013-12-03 00:16:00,35.5,33.4,28.98,East,94,4.0,11.0,92,0.00,,,0.00,WUHU216DAVISVP2,2013-12-03 05:16:00,
2013-12-03 00:19:00,35.5,33.4,28.98,SE,127,8.0,11.0,92,0.00,,,0.00,WUHU216DAVISVP2,2013-12-03 05:19:00,
2013-12-03 00:21:00,35.5,33.4,28.98,SE,141,4.0,12.0,92,0.00,,,0.00,WUHU216DAVISVP2,2013-12-03 05:21:00,
2013-12-03 00:22:00,35.5,33.4,28.98,ESE,108,7.0,12.0,92,0.00,,,0.00,WUHU216DAVISVP2,2013-12-03 05:22:00,
2013-12-03 00:25:00,35.5,33.4,28.98,East,97,4.0,12.0,92,0.00,,,0.00,WUHU216DAVISVP2,2013-12-03 05:25:00,
2013-12-03 00:27:00,35.5,33.4,28.98,SE,134,5.0,12.0,92,0.00,,,0.00,WUHU216DAVISVP2,2013-12-03 05:27:00,
2013-12-03 00:30:00,35.5,33.4,28.98,ESE,112,7.0,12.0,92,0.00,,,0.00,WUHU216DAVISVP2,2013-12-03 05:30:00,
2013-12-03 00:32:00,35.5,33.4,28.98,ESE,112,4.0,12.0,92,0.00,,,0.00,WUHU216DAVISVP2,2013-12-03 05:32:00,
2013-12-03 00:33:00,35.5,33.4,28.98,SE,128,4.0,12.0,92,0.00,,,0.00,WUHU216DAVISVP2,2013-12-03 05:33:00,
2013-12-03 00:35:00,35.5,33.4,28.98,SE,133,5.0,12.0,92,0.00,,,0.00,WUHU216DAVISVP2,2013-12-03 05:35:00,
2013-12-03 00:37:00,35.5,33.4,28.98,SE,129,2.0,12.0,92,0.00,,,0.00,WUHU216DAVISVP2,2013-12-03 05:37:00,
2013-12-03 00:38:00,35.5,33.4,28.98,SE,124,3.0,12.0,92,0.00,,,0.00,WUHU216DAVISVP2,2013-12-03 05:38:00,
2013-12-03 00:39:00,35.5,33.4,28.98,East,98,5.0,10.0,92,0.00,,,0.00,WUHU216DAVISVP2,2013-12-03 05:39:00,
2013-12-03 00:40:00,35.5,33.4,28.97,SE,139,5.0,10.0,92,0.00,,,0.00,WUHU216DAVISVP2,2013-12-03 05:40:00,
2013-12-03 00:42:00,35.5,33.4,28.97,ESE,116,7.0,10.0,92,0.00,,,0.00,WUHU216DAVISVP2,2013-12-03 05:42:00,
2013-12-03 00:43:00,35.5,33.4,28.97,SSE,168,2.0,10.0,92,0.00,,,0.00,WUHU216DAVISVP2,2013-12-03 05:43:00,
2013-12-03 00:44:00,35.5,33.4,28.97,SE,133,2.0,10.0,92,0.00,,,0.00,WUHU216DAVISVP2,2013-12-03 05:44:00,
2013-12-03 00:45:00,35.5,33.4,28.97,SE,145,6.0,10.0,92,0.00,,,0.00,WUHU216DAVISVP2,2013-12-03 05:45:00,
2013-12-03 00:48:00,35.4,33.3,28.97,ESE,120,6.0,11.0,92,0.00,,,0.00,WUHU216DAVISVP2,2013-12-03 05:48:00,
2013-12-03 00:49:00,35.4,33.3,28.97,SE,133,4.0,11.0,92,0.00,,,0.00,WUHU216DAVISVP2,2013-12-03 05:49:00,
2013-12-03 00:51:00,35.4,33.3,28.97,ESE,119,4.0,11.0,92,0.00,,,0.00,WUHU216DAVISVP2,2013-12-03 05:51:00,
2013-12-03 00:53:00,35.4,33.3,28.97,SE,127,4.0,11.0,92,0.00,,,0.00,WUHU216DAVISVP2,2013-12-03 05:53:00,
2013-12-03 00:54:00,35.4,33.3,28.97,ESE,120,2.0,11.0,92,0.00,,,0.00,WUHU216DAVISVP2,2013-12-03 05:54:00,
2013-12-03 00:57:00,35.4,33.3,28.97,SE,131,2.0,11.0,92,0.01,,,0.01,WUHU216DAVISVP2,2013-12-03 05:57:00,
2013-12-03 00:58:00,35.4,33.3,28.97,ESE,123,8.0,11.0,92,0.01,,,0.01,WUHU216DAVISVP2,2013-12-03 05:58:00,
2013-12-03 00:59:00,35.3,33.2,28.97,SE,142,5.0,11.0,92,0.01,,,0.01,WUHU216DAVISVP2,2013-12-03 05:59:00,
2013-12-03 01:02:00,35.4,33.3,28.97,ESE,112,8.0,11.0,92,0.01,,,0.01,WUHU216DAVISVP2,2013-12-03 06:02:00,
2013-12-03 01:03:00,35.4,33.3,28.97,ESE,102,8.0,11.0,92,0.01,,,0.01,WUHU216DAVISVP2,2013-12-03 06:03:00,
2013-12-03 01:04:00,35.4,33.3,28.97,ESE,123,6.0,11.0,92,0.01,,,0.01,WUHU216DAVISVP2,2013-12-03 06:04:00,
2013-12-03 01:07:00,35.4,33.5,28.97,SE,127,5.0,11.0,93,0.01,,,0.01,WUHU216DAVISVP2,2013-12-03 06:07:00,
2013-12-03 01:08:00,35.4,33.5,28.97,ESE,121,7.0,11.0,93,0.01,,,0.01,WUHU216DAVISVP2,2013-12-03 06:08:00,
2013-12-03 01:09:00,35.4,33.5,28.97,ESE,108,6.0,11.0,93,0.01,,,0.01,WUHU216DAVISVP2,2013-12-03 06:09:00,
2013-12-03 01:10:00,35.3,33.4,28.96,ESE,111,9.0,11.0,93,0.01,,,0.01,WUHU216DAVISVP2,2013-12-03 06:10:00,
2013-12-03 01:13:00,35.3,33.4,28.96,ESE,116,6.0,11.0,93,0.01,,,0.01,WUHU216DAVISVP2,2013-12-03 06:13:00,
2013-12-03 01:14:00,35.3,33.4,28.96,ESE,112,8.0,11.0,93,0.01,,,0.01,WUHU216DAVISVP2,2013-12-03 06:14:00,
2013-12-03 01:17:00,35.3,33.4,28.97,ESE,122,2.0,12.0,93,0.01,,,0.01,WUHU216DAVISVP2,2013-12-03 06:17:00,
2013-12-03 01:18:00,35.4,33.5,28.97,ESE,118,3.0,12.0,93,0.01,,,0.01,WUHU216DAVISVP2,2013-12-03 06:18:00,
2013-12-03 01:19:00,35.4,33.5,28.97,ESE,106,4.0,12.0,93,0.01,,,0.01,WUHU216DAVISVP2,2013-12-03 06:19:00,
2013-12-03 01:20:00,35.3,33.4,28.97,SE,127,8.0,12.0,93,0.01,,,0.01,WUHU216DAVISVP2,2013-12-03 06:20:00,
2013-12-03 01:22:00,35.3,33.4,28.97,ESE,123,3.0,12.0,93,0.01,,,0.01,WUHU216DAVISVP2,2013-12-03 06:22:00,
2013-12-03 01:23:00,35.3,33.4,28.96,ESE,116,3.0,12.0,93,0.01,,,0.01,WUHU216DAVISVP2,2013-12-03 06:23:00,
2013-12-03 01:24:00,35.3,33.4,28.96,SE,133,6.0,12.0,93,0.01,,,0.01,WUHU216DAVISVP2,2013-12-03 06:24:00,
2013-12-03 01:25:00,35.3,33.4,28.96,SE,140,1.0,12.0,93,0.01,,,0.01,WUHU216DAVISVP2,2013-12-03 06:25:00,
2013-12-03 01:27:00,35.3,33.4,28.96,SE,128,4.0,12.0,93,0.01,,,0.01,WUHU216DAVISVP2,2013-12-03 06:27:00,
2013-12-03 01:28:00,35.3,33.4,28.96,ESE,116,6.0,12.0,93,0.01,,,0.01,WUHU216DAVISVP2,2013-12-03 06:28:00,
2013-12-03 01:29:00,35.3,33.4,28.96,ESE,123,2.0,12.0,93,0.01,,,0.01,WUHU216DAVISVP2,2013-12-03 06:29:00,
2013-12-03 01:30:00,35.3,33.4,28.96,East,95,7.0,12.0,93,0.01,,,0.01,WUHU216DAVISVP2,2013-12-03 06:30:00,
2013-12-03 01:31:00,35.3,33.4,28.96,ESE,117,5.0,12.0,93,0.01,,,0.01,WUHU216DAVISVP2,2013-12-03 06:31:00,
2013-12-03 01:33:00,35.3,33.4,28.96,SE,125,4.0,12.0,93,0.02,,,0.02,WUHU216DAVISVP2,2013-12-03 06:33:00,
2013-12-03 01:34:00,35.3,33.4,28.96,ESE,117,8.0,11.0,93,0.02,,,0.02,WUHU216DAVISVP2,2013-12-03 06:34:00,
2013-12-03 01:35:00,35.3,33.4,28.96,ESE,113,5.0,12.0,93,0.02,,,0.02,WUHU216DAVISVP2,2013-12-03 06:35:00,
2013-12-03 01:36:00,35.3,33.4,28.96,ESE,118,2.0,12.0,93,0.02,,,0.02,WUHU216DAVISVP2,2013-12-03 06:36:00,
2013-12-03 01:38:00,35.3,33.4,28.96,ESE,110,5.0,12.0,93,0.02,,,0.02,WUHU216DAVISVP2,2013-12-03 06:38:00,
2013-12-03 01:39:00,35.3,33.4,28.96,SE,131,7.0,12.0,93,0.02,,,0.02,WUHU216DAVISVP2,2013-12-03 06:39:00,
2013-12-03 01:40:00,35.3,33.4,28.96,ESE,121,3.0,12.0,93,0.02,,,0.02,WUHU216DAVISVP2,2013-12-03 06:40:00,
2013-12-03 01:41:00,35.3,33.4,28.96,ESE,108,3.0,12.0,93,0.02,,,0.02,WUHU216DAVISVP2,2013-12-03 06:41:00,
2013-12-03 01:43:00,35.3,33.4,28.96,ESE,109,2.0,12.0,93,0.02,,,0.02,WUHU216DAVISVP2,2013-12-03 06:43:00,
2013-12-03 01:44:00,35.3,33.4,28.96,ESE,110,2.0,12.0,93,0.02,,,0.02,WUHU216DAVISVP2,2013-12-03 06:44:00,
2013-12-03 01:45:00,35.3,33.4,28.96,ESE,118,4.0,12.0,93,0.02,,,0.02,WUHU216DAVISVP2,2013-12-03 06:45:00,
2013-12-03 01:46:00,35.3,33.7,28.96,ESE,108,5.0,12.0,94,0.02,,,0.02,WUHU216DAVISVP2,2013-12-03 06:46:00,
2013-12-03 01:48:00,35.3,33.7,28.96,ESE,119,9.0,12.0,94,0.02,,,0.02,WUHU216DAVISVP2,2013-12-03 06:48:00,
2013-12-03 01:49:00,35.3,33.7,28.96,SE,131,5.0,12.0,94,0.02,,,0.02,WUHU216DAVISVP2,2013-12-03 06:49:00,
2013-12-03 01:50:00,35.3,33.7,28.96,ESE,123,8.0,12.0,94,0.02,,,0.02,WUHU216DAVISVP2,2013-12-03 06:50:00,
2013-12-03 01:51:00,35.3,33.7,28.96,SE,126,9.0,12.0,94,0.02,,,0.02,WUHU216DAVISVP2,2013-12-03 06:51:00,
2013-12-03 01:52:00,35.3,33.7,28.96,SE,125,3.0,12.0,94,0.02,,,0.02,WUHU216DAVISVP2,2013-12-03 06:52:00,
2013-12-03 01:53:00,35.3,33.7,28.96,SE,131,4.0,10.0,94,0.02,,,0.02,WUHU216DAVISVP2,2013-12-03 06:53:00,
2013-12-03 01:55:00,35.3,33.7,28.96,SE,137,4.0,10.0,94,0.01,,,0.02,WUHU216DAVISVP2,2013-12-03 06:55:00,
2013-12-03 01:56:00,35.4,33.8,28.96,SE,136,7.0,10.0,94,0.01,,,0.02,WUHU216DAVISVP2,2013-12-03 06:56:00,
2013-12-03 01:57:00,35.3,33.7,28.96,SSE,166,3.0,10.0,94,0.01,,,0.02,WUHU216DAVISVP2,2013-12-03 06:57:00,
2013-12-03 01:58:00,35.4,33.8,28.96,ESE,119,7.0,10.0,94,0.01,,,0.02,WUHU216DAVISVP2,2013-12-03 06:58:00,
2013-12-03 02:00:00,35.4,33.8,28.96,ESE,118,5.0,10.0,94,0.01,,,0.02,WUHU216DAVISVP2,2013-12-03 07:00:00,
2013-12-03 02:01:00,35.4,33.8,28.96,SE,137,2.0,10.0,94,0.01,,,0.02,WUHU216DAVISVP2,2013-12-03 07:01:00,
2013-12-03 02:02:00,35.4,33.8,28.96,ESE,116,4.0,10.0,94,0.01,,,0.02,WUHU216DAVISVP2,2013-12-03 07:02:00,
2013-12-03 02:03:00,35.4,33.8,28.96,ESE,120,5.0,10.0,94,0.01,,,0.02,WUHU216DAVISVP2,2013-12-03 07:03:00,
2013-12-03 02:05:00,35.4,33.8,28.96,SE,126,4.0,10.0,94,0.01,,,0.02,WUHU216DAVISVP2,2013-12-03 07:05:00,
2013-12-03 02:06:00,35.4,33.8,28.96,ESE,108,4.0,10.0,94,0.01,,,0.02,WUHU216DAVISVP2,2013-12-03 07:06:00,
2013-12-03 02:09:00,35.4,33.8,28.96,ESE,106,9.0,10.0,94,0.01,,,0.02,WUHU216DAVISVP2,2013-12-03 07:09:00,
2013-12-03 02:10:00,35.4,33.8,28.97,ESE,111,6.0,10.0,94,0.01,,,0.02,WUHU216DAVISVP2,2013-12-03 07:10:00,
2013-12-03 02:11:00,35.4,33.8,28.97,East,99,6.0,10.0,94,0.01,,,0.02,WUHU216DAVISVP2,2013-12-03 07:11:00,
2013-12-03 02:15:00,35.4,33.8,28.97,ESE,103,5.0,10.0,94,0.01,,,0.02,WUHU216DAVISVP2,2013-12-03 07:15:00,
2013-12-03 02:16:00,35.4,33.8,28.97,ESE,116,7.0,10.0,94,0.01,,,0.02,WUHU216DAVISVP2,2013-12-03 07:16:00,
2013-12-03 02:20:00,35.3,33.7,28.97,East,97,10.0,10.0,94,0.01,,,0.02,WUHU216DAVISVP2,2013-12-03 07:20:00,
2013-12-03 02:21:00,35.3,33.7,28.97,ESE,117,2.0,10.0,94,0.01,,,0.02,WUHU216DAVISVP2,2013-12-03 07:21:00,
2013-12-03 02:25:00,35.3,33.7,28.97,SE,127,4.0,10.0,94,0.01,,,0.02,WUHU216DAVISVP2,2013-12-03 07:25:00,
2013-12-03 02:26:00,35.3,33.7,28.97,ESE,118,4.0,10.0,94,0.01,,,0.02,WUHU216DAVISVP2,2013-12-03 07:26:00,
2013-12-03 02:27:00,35.3,33.7,28.97,ESE,110,5.0,10.0,94,0.01,,,0.02,WUHU216DAVISVP2,2013-12-03 07:27:00,
2013-12-03 02:30:00,35.3,33.7,28.97,SE,141,5.0,10.0,94,0.01,,,0.02,WUHU216DAVISVP2,2013-12-03 07:30:00,
2013-12-03 02:31:00,35.3,33.7,28.97,SE,128,7.0,10.0,94,0.01,,,0.02,WUHU216DAVISVP2,2013-12-03 07:31:00,
2013-12-03 02:32:00,35.3,33.7,28.97,ESE,112,4.0,10.0,94,0.00,,,0.02,WUHU216DAVISVP2,2013-12-03 07:32:00,
2013-12-03 02:36:00,35.3,33.7,28.97,SSE,158,7.0,10.0,94,0.00,,,0.02,WUHU216DAVISVP2,2013-12-03 07:36:00,
2013-12-03 02:37:00,35.3,33.7,28.97,ESE,120,5.0,10.0,94,0.00,,,0.02,WUHU216DAVISVP2,2013-12-03 07:37:00,
2013-12-03 02:38:00,35.3,33.7,28.97,SE,125,6.0,10.0,94,0.00,,,0.02,WUHU216DAVISVP2,2013-12-03 07:38:00,
2013-12-03 02:41:00,35.3,33.7,28.97,ESE,110,6.0,10.0,94,0.00,,,0.02,WUHU216DAVISVP2,2013-12-03 07:41:00,
2013-12-03 02:42:00,35.3,33.7,28.97,SE,145,3.0,10.0,94,0.00,,,0.02,WUHU216DAVISVP2,2013-12-03 07:42:00,
2013-12-03 02:43:00,35.4,33.8,28.97,ESE,110,2.0,9.0,94,0.00,,,0.02,WUHU216DAVISVP2,2013-12-03 07:43:00,
2013-12-03 02:44:00,35.4,33.8,28.97,SSE,154,7.0,9.0,94,0.00,,,0.02,WUHU216DAVISVP2,2013-12-03 07:44:00,
2013-12-03 02:46:00,35.4,33.8,28.97,ESE,120,5.0,9.0,94,0.00,,,0.02,WUHU216DAVISVP2,2013-12-03 07:46:00,
2013-12-03 02:47:00,35.4,33.8,28.97,SE,127,1.0,9.0,94,0.00,,,0.02,WUHU216DAVISVP2,2013-12-03 07:47:00,
2013-12-03 02:48:00,35.4,33.8,28.97,ESE,122,0.0,9.0,94,0.00,,,0.02,WUHU216DAVISVP2,2013-12-03 07:48:00,
2013-12-03 02:49:00,35.4,33.8,28.97,SE,127,3.0,9.0,94,0.00,,,0.02,WUHU216DAVISVP2,2013-12-03 07:49:00,
2013-12-03 02:51:00,35.4,33.8,28.97,ESE,121,4.0,9.0,94,0.00,,,0.02,WUHU216DAVISVP2,2013-12-03 07:51:00,
2013-12-03 02:52:00,35.4,33.8,28.97,ESE,104,8.0,9.0,94,0.00,,,0.02,WUHU216DAVISVP2,2013-12-03 07:52:00,
2013-12-03 02:53:00,35.4,33.8,28.97,ESE,110,2.0,8.0,94,0.00,,,0.02,WUHU216DAVISVP2,2013-12-03 07:53:00,
2013-12-03 02:54:00,35.4,33.8,28.97,ESE,122,3.0,8.0,94,0.00,,,0.02,WUHU216DAVISVP2,2013-12-03 07:54:00,
2013-12-03 02:56:00,35.5,33.9,28.97,ESE,116,3.0,8.0,94,0.00,,,0.02,WUHU216DAVISVP2,2013-12-03 07:56:00,
2013-12-03 02:57:00,35.5,33.9,28.97,SE,137,6.0,8.0,94,0.00,,,0.02,WUHU216DAVISVP2,2013-12-03 07:57:00,
2013-12-03 02:58:00,35.5,33.9,28.97,ESE,114,2.0,8.0,94,0.00,,,0.02,WUHU216DAVISVP2,2013-12-03 07:58:00,
2013-12-03 02:59:00,35.5,33.9,28.97,SE,130,2.0,8.0,94,0.00,,,0.02,WUHU216DAVISVP2,2013-12-03 07:59:00,
2013-12-03 03:00:00,35.5,33.9,28.97,SE,127,2.0,8.0,94,0.00,,,0.02,WUHU216DAVISVP2,2013-12-03 08:00:00,
2013-12-03 03:01:00,35.5,33.9,28.97,SE,126,5.0,8.0,94,0.00,,,0.02,WUHU216DAVISVP2,2013-12-03 08:01:00,
2013-12-03 03:03:00,35.5,33.9,28.97,SE,127,8.0,8.0,94,0.00,,,0.02,WUHU216DAVISVP2,2013-12-03 08:03:00,
2013-12-03 03:04:00,35.5,33.9,28.97,SE,134,6.0,10.0,94,0.00,,,0.02,WUHU216DAVISVP2,2013-12-03 08:04:00,
2013-12-03 03:05:00,35.5,33.9,28.97,SE,126,2.0,10.0,94,0.00,,,0.02,WUHU216DAVISVP2,2013-12-03 08:05:00,
2013-12-03 03:06:00,35.6,34.0,28.97,SE,133,4.0,10.0,94,0.00,,,0.02,WUHU216DAVISVP2,2013-12-03 08:06:00,
2013-12-03 03:08:00,35.5,33.9,28.97,ESE,112,7.0,10.0,94,0.00,,,0.02,WUHU216DAVISVP2,2013-12-03 08:08:00,
2013-12-03 03:10:00,35.6,34.0,28.97,ESE,121,9.0,11.0,94,0.00,,,0.02,WUHU216DAVISVP2,2013-12-03 08:10:00,
2013-12-03 03:11:00,35.6,34.0,28.97,SE,135,2.0,11.0,94,0.00,,,0.02,WUHU216DAVISVP2,2013-12-03 08:11:00,
2013-12-03 03:13:00,35.6,34.0,28.97,ESE,110,3.0,11.0,94,0.00,,,0.02,WUHU216DAVISVP2,2013-12-03 08:13:00,
2013-12-03 03:15:00,35.6,34.0,28.97,SE,127,4.0,11.0,94,0.00,,,0.02,WUHU216DAVISVP2,2013-12-03 08:15:00,
2013-12-03 03:16:00,35.6,34.0,28.97,ESE,123,2.0,11.0,94,0.00,,,0.02,WUHU216DAVISVP2,2013-12-03 08:16:00,
2013-12-03 03:17:00,35.6,34.0,28.97,East,91,2.0,11.0,94,0.00,,,0.02,WUHU216DAVISVP2,2013-12-03 08:17:00,
2013-12-03 03:18:00,35.6,34.0,28.96,ESE,116,6.0,11.0,94,0.00,,,0.02,WUHU216DAVISVP2,2013-12-03 08:18:00,
2013-12-03 03:21:00,35.6,34.0,28.96,SE,132,4.0,11.0,94,0.00,,,0.02,WUHU216DAVISVP2,2013-12-03 08:21:00,
2013-12-03 03:22:00,35.6,34.0,28.96,ESE,109,4.0,11.0,94,0.00,,,0.02,WUHU216DAVISVP2,2013-12-03 08:22:00,
2013-12-03 03:23:00,35.6,34.0,28.96,SE,129,7.0,11.0,94,0.00,,,0.02,WUHU216DAVISVP2,2013-12-03 08:23:00,
2013-12-03 03:26:00,35.6,34.0,28.96,ESE,111,5.0,11.0,94,0.00,,,0.02,WUHU216DAVISVP2,2013-12-03 08:26:00,
2013-12-03 03:27:00,35.6,34.0,28.96,ESE,113,6.0,11.0,94,0.00,,,0.02,WUHU216DAVISVP2,2013-12-03 08:27:00,
2013-12-03 03:28:00,35.6,34.0,28.96,ESE,114,2.0,10.0,94,0.00,,,0.02,WUHU216DAVISVP2,2013-12-03 08:28:00,
2013-12-03 03:29:00,35.7,34.1,28.97,ESE,116,2.0,10.0,94,0.00,,,0.02,WUHU216DAVISVP2,2013-12-03 08:29:00,
2013-12-03 03:31:00,35.7,34.1,28.97,SE,126,3.0,9.0,94,0.00,,,0.02,WUHU216DAVISVP2,2013-12-03 08:31:00,
2013-12-03 03:32:00,35.7,34.1,28.97,ESE,122,1.0,9.0,94,0.00,,,0.02,WUHU216DAVISVP2,2013-12-03 08:32:00,
2013-12-03 03:33:00,35.7,34.1,28.97,ESE,120,6.0,9.0,94,0.00,,,0.02,WUHU216DAVISVP2,2013-12-03 08:33:00,
2013-12-03 03:34:00,35.7,34.1,28.97,East,100,7.0,9.0,94,0.00,,,0.02,WUHU216DAVISVP2,2013-12-03 08:34:00,
2013-12-03 03:36:00,35.7,34.1,28.97,ESE,104,4.0,9.0,94,0.00,,,0.02,WUHU216DAVISVP2,2013-12-03 08:36:00,
2013-12-03 03:37:00,35.7,34.1,28.97,SE,131,2.0,9.0,94,0.00,,,0.02,WUHU216DAVISVP2,2013-12-03 08:37:00,
2013-12-03 03:38:00,35.7,34.1,28.97,SE,124,5.0,9.0,94,0.00,,,0.02,WUHU216DAVISVP2,2013-12-03 08:38:00,
2013-12-03 03:39:00,35.7,34.1,28.97,SE,135,1.0,9.0,94,0.00,,,0.02,WUHU216DAVISVP2,2013-12-03 08:39:00,
2013-12-03 03:42:00,35.7,34.1,28.97,SE,129,3.0,9.0,94,0.00,,,0.02,WUHU216DAVISVP2,2013-12-03 08:42:00,
2013-12-03 03:43:00,35.7,34.1,28.97,ESE,113,7.0,9.0,94,0.00,,,0.02,WUHU216DAVISVP2,2013-12-03 08:43:00,
2013-12-03 03:44:00,35.8,34.2,28.97,ESE,104,5.0,9.0,94,0.00,,,0.02,WUHU216DAVISVP2,2013-12-03 08:44:00,
2013-12-03 03:47:00,35.7,34.1,28.96,SSE,155,6.0,9.0,94,0.00,,,0.02,WUHU216DAVISVP2,2013-12-03 08:47:00,
2013-12-03 03:48:00,35.7,34.1,28.96,SSE,155,6.0,9.0,94,0.00,,,0.02,WUHU216DAVISVP2,2013-12-03 08:48:00,
2013-12-03 03:49:00,35.8,34.2,28.97,ESE,109,4.0,8.0,94,0.00,,,0.02,WUHU216DAVISVP2,2013-12-03 08:49:00,
2013-12-03 03:50:00,35.8,34.2,28.96,ESE,114,4.0,8.0,94,0.00,,,0.02,WUHU216DAVISVP2,2013-12-03 08:50:00,
2013-12-03 03:53:00,35.8,34.2,28.96,ESE,113,4.0,8.0,94,0.00,,,0.02,WUHU216DAVISVP2,2013-12-03 08:53:00,
2013-12-03 03:55:00,35.7,34.1,28.97,East,88,4.0,8.0,94,0.00,,,0.02,WUHU216DAVISVP2,2013-12-03 08:55:00,
2013-12-03 03:58:00,35.8,34.2,28.96,ESE,121,7.0,8.0,94,0.00,,,0.02,WUHU216DAVISVP2,2013-12-03 08:58:00,
2013-12-03 03:59:00,35.8,34.2,28.96,ESE,121,1.0,9.0,94,0.00,,,0.02,WUHU216DAVISVP2,2013-12-03 08:59:00,
2013-12-03 04:00:00,35.8,34.2,28.96,SE,139,6.0,9.0,94,0.00,,,0.02,WUHU216DAVISVP2,2013-12-03 09:00:00,
2013-12-03 04:03:00,35.8,34.2,28.96,ESE,103,6.0,9.0,94,0.00,,,0.02,WUHU216DAVISVP2,2013-12-03 09:03:00,
2013-12-03 04:04:00,35.8,34.2,28.96,ESE,116,5.0,9.0,94,0.00,,,0.02,WUHU216DAVISVP2,2013-12-03 09:04:00,
2013-12-03 04:05:00,35.8,34.2,28.96,SSE,152,6.0,9.0,94,0.00,,,0.02,WUHU216DAVISVP2,2013-12-03 09:05:00,
2013-12-03 04:06:00,35.8,34.2,28.97,SSE,159,2.0,9.0,94,0.00,,,0.02,WUHU216DAVISVP2,2013-12-03 09:06:00,
2013-12-03 04:08:00,35.8,34.2,28.96,ESE,118,2.0,9.0,94,0.00,,,0.02,WUHU216DAVISVP2,2013-12-03 09:08:00,
2013-12-03 04:09:00,35.8,34.2,28.96,SSE,156,2.0,9.0,94,0.00,,,0.02,WUHU216DAVISVP2,2013-12-03 09:09:00,
2013-12-03 04:10:00,35.8,34.2,28.96,ESE,112,0.0,9.0,94,0.00,,,0.02,WUHU216DAVISVP2,2013-12-03 09:10:00,
2013-12-03 04:11:00,35.8,34.2,28.96,ESE,112,0.0,9.0,94,0.00,,,0.02,WUHU216DAVISVP2,2013-12-03 09:11:00,
2013-12-03 04:13:00,35.8,34.2,28.96,SE,132,5.0,9.0,94,0.00,,,0.02,WUHU216DAVISVP2,2013-12-03 09:13:00,
2013-12-03 04:14:00,35.8,34.2,28.97,SE,137,4.0,9.0,94,0.00,,,0.02,WUHU216DAVISVP2,2013-12-03 09:14:00,
2013-12-03 04:15:00,35.8,34.2,28.97,ESE,117,5.0,9.0,94,0.00,,,0.02,WUHU216DAVISVP2,2013-12-03 09:15:00,
2013-12-03 04:16:00,35.8,34.2,28.97,ESE,110,4.0,9.0,94,0.00,,,0.02,WUHU216DAVISVP2,2013-12-03 09:16:00,
2013-12-03 04:17:00,35.8,34.2,28.96,SE,124,4.0,9.0,94,0.00,,,0.02,WUHU216DAVISVP2,2013-12-03 09:17:00,
2013-12-03 04:18:00,35.8,34.2,28.96,SE,127,2.0,9.0,94,0.00,,,0.02,WUHU216DAVISVP2,2013-12-03 09:18:00,
2013-12-03 04:19:00,35.8,34.2,28.96,ESE,123,1.0,9.0,94,0.00,,,0.02,WUHU216DAVISVP2,2013-12-03 09:19:00,
2013-12-03 04:20:00,35.8,34.2,28.96,SE,134,4.0,9.0,94,0.00,,,0.02,WUHU216DAVISVP2,2013-12-03 09:20:00,
2013-12-03 04:21:00,35.8,34.2,28.96,ESE,120,4.0,9.0,94,0.00,,,0.02,WUHU216DAVISVP2,2013-12-03 09:21:00,
2013-12-03 04:22:00,35.8,34.2,28.96,SE,125,4.0,9.0,94,0.00,,,0.02,WUHU216DAVISVP2,2013-12-03 09:22:00,
2013-12-03 04:23:00,35.8,34.2,28.96,SE,138,1.0,9.0,94,0.00,,,0.02,WUHU216DAVISVP2,2013-12-03 09:23:00,
2013-12-03 04:24:00,35.8,34.2,28.96,SE,137,1.0,9.0,94,0.00,,,0.02,WUHU216DAVISVP2,2013-12-03 09:24:00,
2013-12-03 04:25:00,35.9,34.3,28.96,SE,126,2.0,9.0,94,0.00,,,0.02,WUHU216DAVISVP2,2013-12-03 09:25:00,
2013-12-03 04:26:00,35.9,34.3,28.96,SE,127,3.0,9.0,94,0.00,,,0.02,WUHU216DAVISVP2,2013-12-03 09:26:00,
2013-12-03 04:27:00,35.9,34.3,28.95,SE,128,2.0,9.0,94,0.00,,,0.02,WUHU216DAVISVP2,2013-12-03 09:27:00,
2013-12-03 04:28:00,35.9,34.3,28.95,SSE,149,6.0,9.0,94,0.00,,,0.02,WUHU216DAVISVP2,2013-12-03 09:28:00,
2013-12-03 04:30:00,35.9,34.3,28.95,SSE,155,5.0,9.0,94,0.00,,,0.02,WUHU216DAVISVP2,2013-12-03 09:30:00,
2013-12-03 04:31:00,35.9,34.3,28.95,SE,138,1.0,9.0,94,0.00,,,0.02,WUHU216DAVISVP2,2013-12-03 09:31:00,
2013-12-03 04:33:00,35.9,34.3,28.95,ESE,119,0.0,9.0,94,0.00,,,0.02,WUHU216DAVISVP2,2013-12-03 09:33:00,
2013-12-03 04:34:00,35.9,34.3,28.95,ESE,119,0.0,9.0,94,0.00,,,0.02,WUHU216DAVISVP2,2013-12-03 09:34:00,
2013-12-03 04:35:00,35.9,34.3,28.95,SE,132,1.0,9.0,94,0.00,,,0.02,WUHU216DAVISVP2,2013-12-03 09:35:00,
2013-12-03 04:36:00,35.9,34.3,28.95,ESE,110,4.0,9.0,94,0.00,,,0.02,WUHU216DAVISVP2,2013-12-03 09:36:00,
2013-12-03 04:38:00,36.0,34.4,28.95,East,93,2.0,9.0,94,0.00,,,0.02,WUHU216DAVISVP2,2013-12-03 09:38:00,
2013-12-03 04:39:00,36.0,34.4,28.95,ESE,104,5.0,9.0,94,0.00,,,0.02,WUHU216DAVISVP2,2013-12-03 09:39:00,
2013-12-03 04:40:00,36.0,34.4,28.95,SE,127,4.0,9.0,94,0.00,,,0.02,WUHU216DAVISVP2,2013-12-03 09:40:00,
2013-12-03 04:41:00,36.0,34.4,28.95,SE,127,7.0,9.0,94,0.00,,,0.02,WUHU216DAVISVP2,2013-12-03 09:41:00,
2013-12-03 04:42:00,36.0,34.4,28.95,SE,135,2.0,9.0,94,0.00,,,0.02,WUHU216DAVISVP2,2013-12-03 09:42:00,
2013-12-03 04:43:00,36.0,34.4,28.96,ESE,120,1.0,9.0,94,0.00,,,0.02,WUHU216DAVISVP2,2013-12-03 09:43:00,
2013-12-03 04:44:00,36.0,34.4,28.95,ESE,120,2.0,9.0,94,0.00,,,0.02,WUHU216DAVISVP2,2013-12-03 09:44:00,
2013-12-03 04:46:00,36.0,34.4,28.95,SE,141,3.0,9.0,94,0.00,,,0.02,WUHU216DAVISVP2,2013-12-03 09:46:00,
2013-12-03 04:47:00,36.0,34.4,28.96,ESE,110,4.0,9.0,94,0.00,,,0.02,WUHU216DAVISVP2,2013-12-03 09:47:00,
2013-12-03 04:49:00,36.0,34.4,28.96,SE,125,5.0,9.0,94,0.00,,,0.02,WUHU216DAVISVP2,2013-12-03 09:49:00,
2013-12-03 04:51:00,36.0,34.4,28.96,ESE,122,2.0,9.0,94,0.00,,,0.02,WUHU216DAVISVP2,2013-12-03 09:51:00,
2013-12-03 04:52:00,36.0,34.4,28.96,ESE,122,3.0,9.0,94,0.00,,,0.02,WUHU216DAVISVP2,2013-12-03 09:52:00,
2013-12-03 04:54:00,36.1,34.5,28.96,SE,125,2.0,9.0,94,0.00,,,0.02,WUHU216DAVISVP2,2013-12-03 09:54:00,
2013-12-03 04:56:00,36.1,34.5,28.96,SSE,149,2.0,9.0,94,0.00,,,0.02,WUHU216DAVISVP2,2013-12-03 09:56:00,
2013-12-03 04:57:00,36.1,34.5,28.96,SSE,149,2.0,9.0,94,0.00,,,0.02,WUHU216DAVISVP2,2013-12-03 09:57:00,
2013-12-03 04:58:00,36.1,34.5,28.95,SE,133,2.0,9.0,94,0.00,,,0.02,WUHU216DAVISVP2,2013-12-03 09:58:00,
2013-12-03 04:59:00,36.1,34.5,28.96,SE,137,1.0,9.0,94,0.00,,,0.02,WUHU216DAVISVP2,2013-12-03 09:59:00,
2013-12-03 05:02:00,36.1,34.5,28.95,SE,145,0.0,9.0,94,0.00,,,0.02,WUHU216DAVISVP2,2013-12-03 10:02:00,
2013-12-03 05:03:00,36.1,34.5,28.95,SE,127,7.0,9.0,94,0.00,,,0.02,WUHU216DAVISVP2,2013-12-03 10:03:00,
2013-12-03 05:04:00,36.1,34.5,28.95,ESE,123,4.0,9.0,94,0.00,,,0.02,WUHU216DAVISVP2,2013-12-03 10:04:00,
2013-12-03 05:07:00,36.2,34.9,28.95,ESE,115,2.0,9.0,95,0.00,,,0.02,WUHU216DAVISVP2,2013-12-03 10:07:00,
2013-12-03 05:08:00,36.2,34.6,28.95,ESE,116,2.0,9.0,94,0.00,,,0.02,WUHU216DAVISVP2,2013-12-03 10:08:00,
2013-12-03 05:09:00,36.2,34.6,28.96,ESE,117,1.0,9.0,94,0.00,,,0.02,WUHU216DAVISVP2,2013-12-03 10:09:00,
2013-12-03 05:12:00,36.2,34.6,28.95,SE,135,5.0,7.0,94,0.00,,,0.02,WUHU216DAVISVP2,2013-12-03 10:12:00,
2013-12-03 05:13:00,36.2,34.6,28.95,ESE,114,4.0,7.0,94,0.00,,,0.02,WUHU216DAVISVP2,2013-12-03 10:13:00,
2013-12-03 05:14:00,36.3,34.7,28.95,SE,142,4.0,8.0,94,0.00,,,0.02,WUHU216DAVISVP2,2013-12-03 10:14:00,
2013-12-03 05:15:00,36.3,34.7,28.95,SE,129,5.0,8.0,94,0.00,,,0.02,WUHU216DAVISVP2,2013-12-03 10:15:00,
2013-12-03 05:18:00,36.3,34.7,28.95,ESE,108,5.0,8.0,94,0.00,,,0.02,WUHU216DAVISVP2,2013-12-03 10:18:00,
2013-12-03 05:19:00,36.4,34.8,28.95,SSE,156,2.0,8.0,94,0.00,,,0.02,WUHU216DAVISVP2,2013-12-03 10:19:00,
2013-12-03 05:20:00,36.4,34.8,28.95,SE,128,5.0,8.0,94,0.00,,,0.02,WUHU216DAVISVP2,2013-12-03 10:20:00,
2013-12-03 05:23:00,36.4,34.8,28.95,SSE,150,0.0,8.0,94,0.00,,,0.02,WUHU216DAVISVP2,2013-12-03 10:23:00,
2013-12-03 05:25:00,36.4,34.8,28.95,SE,133,0.0,8.0,94,0.00,,,0.02,WUHU216DAVISVP2,2013-12-03 10:25:00,
2013-12-03 05:28:00,36.4,34.8,28.95,ESE,122,4.0,8.0,94,0.00,,,0.02,WUHU216DAVISVP2,2013-12-03 10:28:00,
2013-12-03 05:29:00,36.4,34.8,28.95,SE,136,5.0,8.0,94,0.00,,,0.02,WUHU216DAVISVP2,2013-12-03 10:29:00,
2013-12-03 05:30:00,36.5,34.9,28.95,ESE,118,0.0,8.0,94,0.00,,,0.02,WUHU216DAVISVP2,2013-12-03 10:30:00,
2013-12-03 05:31:00,36.5,34.9,28.95,SE,129,4.0,8.0,94,0.00,,,0.02,WUHU216DAVISVP2,2013-12-03 10:31:00,
2013-12-03 05:33:00,36.5,34.9,28.95,SSE,147,0.0,8.0,94,0.00,,,0.02,WUHU216DAVISVP2,2013-12-03 10:33:00,
2013-12-03 05:34:00,36.5,36.5,28.95,SE,140,0.0,7.0,100,0.00,,,0.02,WUHU216DAVISVP2,2013-12-03 10:34:00,
2013-12-03 05:35:00,36.5,35.2,28.95,SE,146,1.0,7.0,95,0.00,,,0.02,WUHU216DAVISVP2,2013-12-03 10:35:00,
2013-12-03 05:36:00,36.5,36.5,28.95,ESE,114,4.0,7.0,100,0.00,,,0.02,WUHU216DAVISVP2,2013-12-03 10:36:00,
2013-12-03 05:37:00,36.6,35.3,28.95,ESE,119,3.0,7.0,95,0.00,,,0.02,WUHU216DAVISVP2,2013-12-03 10:37:00,
2013-12-03 05:38:00,36.6,35.3,28.95,SE,128,0.0,7.0,95,0.00,,,0.02,WUHU216DAVISVP2,2013-12-03 10:38:00,
2013-12-03 05:39:00,36.6,35.3,28.95,SE,133,1.0,7.0,95,0.00,,,0.02,WUHU216DAVISVP2,2013-12-03 10:39:00,
2013-12-03 05:40:00,36.6,35.3,28.95,ESE,117,3.0,7.0,95,0.00,,,0.02,WUHU216DAVISVP2,2013-12-03 10:40:00,
2013-12-03 05:41:00,36.6,35.3,28.95,ESE,116,3.0,7.0,95,0.00,,,0.02,WUHU216DAVISVP2,2013-12-03 10:41:00,
2013-12-03 05:42:00,36.6,35.3,28.95,SE,128,4.0,7.0,95,0.00,,,0.02,WUHU216DAVISVP2,2013-12-03 10:42:00,
2013-12-03 05:43:00,36.7,35.4,28.95,ESE,121,2.0,7.0,95,0.00,,,0.02,WUHU216DAVISVP2,2013-12-03 10:43:00,
2013-12-03 05:44:00,36.7,35.4,28.95,ESE,118,2.0,7.0,95,0.00,,,0.02,WUHU216DAVISVP2,2013-12-03 10:44:00,
2013-12-03 05:45:00,36.7,35.4,28.95,SE,131,1.0,7.0,95,0.00,,,0.02,WUHU216DAVISVP2,2013-12-03 10:45:00,
2013-12-03 05:46:00,36.7,35.4,28.95,ESE,112,5.0,7.0,95,0.00,,,0.02,WUHU216DAVISVP2,2013-12-03 10:46:00,
2013-12-03 05:47:00,36.7,35.4,28.95,SE,132,0.0,6.0,95,0.00,,,0.02,WUHU216DAVISVP2,2013-12-03 10:47:00,
2013-12-03 05:49:00,36.8,35.5,28.95,SE,132,0.0,6.0,95,0.00,,,0.02,WUHU216DAVISVP2,2013-12-03 10:49:00,
2013-12-03 05:51:00,36.7,35.4,28.95,NE,48,0.0,6.0,95,0.00,,,0.02,WUHU216DAVISVP2,2013-12-03 10:51:00,
2013-12-03 05:53:00,36.8,35.5,28.95,ESE,113,0.0,6.0,95,0.00,,,0.02,WUHU216DAVISVP2,2013-12-03 10:53:00,
2013-12-03 05:54:00,36.8,35.5,28.95,SE,139,1.0,7.0,95,0.00,,,0.02,WUHU216DAVISVP2,2013-12-03 10:54:00,
2013-12-03 05:55:00,36.8,35.5,28.95,ESE,122,2.0,7.0,95,0.00,,,0.02,WUHU216DAVISVP2,2013-12-03 10:55:00,
2013-12-03 05:56:00,36.8,35.5,28.95,SSE,149,1.0,7.0,95,0.00,,,0.02,WUHU216DAVISVP2,2013-12-03 10:56:00,
2013-12-03 05:58:00,36.8,35.5,28.95,SE,129,0.0,7.0,95,0.00,,,0.02,WUHU216DAVISVP2,2013-12-03 10:58:00,
2013-12-03 05:59:00,36.8,35.5,28.95,SE,129,0.0,7.0,95,0.00,,,0.02,WUHU216DAVISVP2,2013-12-03 10:59:00,
2013-12-03 06:01:00,36.8,35.5,28.94,SE,125,1.0,7.0,95,0.00,,,0.02,WUHU216DAVISVP2,2013-12-03 11:01:00,
2013-12-03 06:02:00,36.8,35.5,28.94,SE,125,0.0,7.0,95,0.00,,,0.02,WUHU216DAVISVP2,2013-12-03 11:02:00,
2013-12-03 06:03:00,36.8,35.5,28.94,SE,125,0.0,7.0,95,0.00,,,0.02,WUHU216DAVISVP2,2013-12-03 11:03:00,
2013-12-03 06:04:00,36.8,35.5,28.94,SE,125,0.0,7.0,95,0.00,,,0.02,WUHU216DAVISVP2,2013-12-03 11:04:00,
2013-12-03 06:06:00,36.8,35.5,28.94,SE,128,0.0,7.0,95,0.00,,,0.02,WUHU216DAVISVP2,2013-12-03 11:06:00,
2013-12-03 06:08:00,36.8,35.5,28.94,SE,128,0.0,7.0,95,0.00,,,0.02,WUHU216DAVISVP2,2013-12-03 11:08:00,
2013-12-03 06:09:00,36.8,35.5,28.94,SE,136,0.0,7.0,95,0.00,,,0.02,WUHU216DAVISVP2,2013-12-03 11:09:00,
2013-12-03 06:11:00,36.8,35.5,28.94,SE,135,0.0,7.0,95,0.00,,,0.02,WUHU216DAVISVP2,2013-12-03 11:11:00,
2013-12-03 06:13:00,36.8,35.2,28.94,SE,145,1.0,6.0,94,0.00,,,0.02,WUHU216DAVISVP2,2013-12-03 11:13:00,
2013-12-03 06:14:00,36.9,35.6,28.94,SE,127,0.0,6.0,95,0.00,,,0.02,WUHU216DAVISVP2,2013-12-03 11:14:00,
2013-12-03 06:15:00,36.8,35.5,28.94,SE,125,6.0,6.0,95,0.00,,,0.02,WUHU216DAVISVP2,2013-12-03 11:15:00,
2013-12-03 06:16:00,36.9,35.6,28.94,South,170,1.0,6.0,95,0.00,,,0.02,WUHU216DAVISVP2,2013-12-03 11:16:00,
2013-12-03 06:18:00,36.9,35.6,28.94,SSE,157,8.0,8.0,95,0.00,,,0.02,WUHU216DAVISVP2,2013-12-03 11:18:00,
2013-12-03 06:19:00,36.9,35.6,28.94,SSE,163,6.0,9.0,95,0.00,,,0.02,WUHU216DAVISVP2,2013-12-03 11:19:00,
2013-12-03 06:20:00,37.0,35.7,28.94,ESE,106,4.0,9.0,95,0.00,,,0.02,WUHU216DAVISVP2,2013-12-03 11:20:00,
2013-12-03 06:22:00,37.0,35.7,28.94,ESE,106,0.0,9.0,95,0.00,,,0.02,WUHU216DAVISVP2,2013-12-03 11:22:00,
2013-12-03 06:23:00,37.0,35.7,28.95,ESE,106,0.0,9.0,95,0.00,,,0.02,WUHU216DAVISVP2,2013-12-03 11:23:00,
2013-12-03 06:24:00,37.0,35.7,28.95,ESE,112,3.0,9.0,95,0.00,,,0.02,WUHU216DAVISVP2,2013-12-03 11:24:00,
2013-12-03 06:25:00,37.0,35.7,28.95,SSE,168,3.0,9.0,95,0.00,,,0.02,WUHU216DAVISVP2,2013-12-03 11:25:00,
2013-12-03 06:27:00,37.1,35.8,28.95,SSE,168,0.0,9.0,95,0.00,,,0.02,WUHU216DAVISVP2,2013-12-03 11:27:00,
2013-12-03 06:28:00,37.1,35.8,28.95,SSE,168,0.0,9.0,95,0.00,,,0.02,WUHU216DAVISVP2,2013-12-03 11:28:00,
2013-12-03 06:29:00,37.1,35.8,28.95,SSE,168,0.0,9.0,95,0.00,,,0.02,WUHU216DAVISVP2,2013-12-03 11:29:00,
2013-12-03 06:30:00,37.1,35.8,28.95,SSE,168,0.0,9.0,95,0.00,,,0.02,WUHU216DAVISVP2,2013-12-03 11:30:00,
2013-12-03 06:31:00,37.1,35.8,28.95,SSE,168,0.0,9.0,95,0.00,,,0.02,WUHU216DAVISVP2,2013-12-03 11:31:00,
2013-12-03 06:32:00,37.1,35.8,28.95,SSE,168,2.0,9.0,95,0.00,,,0.02,WUHU216DAVISVP2,2013-12-03 11:32:00,
2013-12-03 06:33:00,37.1,35.8,28.95,SE,130,1.0,9.0,95,0.00,,,0.02,WUHU216DAVISVP2,2013-12-03 11:33:00,
2013-12-03 06:34:00,37.1,35.8,28.95,SE,125,1.0,9.0,95,0.00,,,0.02,WUHU216DAVISVP2,2013-12-03 11:34:00,
2013-12-03 06:35:00,37.1,35.8,28.95,SE,125,1.0,9.0,95,0.00,,,0.02,WUHU216DAVISVP2,2013-12-03 11:35:00,
2013-12-03 06:36:00,37.1,35.8,28.95,East,91,4.0,9.0,95,0.00,,,0.02,WUHU216DAVISVP2,2013-12-03 11:36:00,
2013-12-03 06:37:00,37.1,35.8,28.95,ESE,110,1.0,9.0,95,0.00,,,0.02,WUHU216DAVISVP2,2013-12-03 11:37:00,
2013-12-03 06:38:00,37.1,35.5,28.95,ESE,110,2.0,6.0,94,0.00,,,0.02,WUHU216DAVISVP2,2013-12-03 11:38:00,
2013-12-03 06:40:00,37.1,35.8,28.95,ESE,119,5.0,6.0,95,0.00,,,0.02,WUHU216DAVISVP2,2013-12-03 11:40:00,
2013-12-03 06:41:00,37.1,35.8,28.95,SE,138,4.0,6.0,95,0.00,,,0.02,WUHU216DAVISVP2,2013-12-03 11:41:00,
2013-12-03 06:42:00,37.1,35.5,28.95,ESE,102,5.0,6.0,94,0.00,,,0.02,WUHU216DAVISVP2,2013-12-03 11:42:00,
2013-12-03 06:43:00,37.2,35.9,28.95,SE,141,5.0,6.0,95,0.00,,,0.02,WUHU216DAVISVP2,2013-12-03 11:43:00,
2013-12-03 06:45:00,37.2,35.9,28.95,ESE,113,3.0,6.0,95,0.00,,,0.02,WUHU216DAVISVP2,2013-12-03 11:45:00,
2013-12-03 06:46:00,37.2,35.9,28.95,ESE,123,5.0,7.0,95,0.00,,,0.02,WUHU216DAVISVP2,2013-12-03 11:46:00,
2013-12-03 06:47:00,37.2,35.9,28.95,ESE,117,3.0,7.0,95,0.00,,,0.02,WUHU216DAVISVP2,2013-12-03 11:47:00,
2013-12-03 06:49:00,37.2,35.9,28.95,SE,131,2.0,7.0,95,0.00,,,0.02,WUHU216DAVISVP2,2013-12-03 11:49:00,
2013-12-03 06:51:00,37.2,35.9,28.95,SSE,149,4.0,7.0,95,0.00,,,0.02,WUHU216DAVISVP2,2013-12-03 11:51:00,
2013-12-03 06:52:00,37.2,35.9,28.96,SE,144,4.0,7.0,95,0.00,,,0.02,WUHU216DAVISVP2,2013-12-03 11:52:00,
2013-12-03 06:54:00,37.2,35.9,28.96,South,170,4.0,7.0,95,0.00,,,0.02,WUHU216DAVISVP2,2013-12-03 11:54:00,
2013-12-03 06:56:00,37.3,36.0,28.96,SSE,162,0.0,7.0,95,0.00,,,0.02,WUHU216DAVISVP2,2013-12-03 11:56:00,
2013-12-03 06:57:00,37.3,36.0,28.96,SSE,161,0.0,7.0,95,0.00,,,0.02,WUHU216DAVISVP2,2013-12-03 11:57:00,
2013-12-03 06:58:00,37.3,36.0,28.96,ESE,108,5.0,7.0,95,0.00,,,0.02,WUHU216DAVISVP2,2013-12-03 11:58:00,
2013-12-03 06:59:00,37.3,36.0,28.97,East,82,0.0,7.0,95,0.00,,,0.02,WUHU216DAVISVP2,2013-12-03 11:59:00,
2013-12-03 07:02:00,37.3,36.0,28.97,East,82,0.0,7.0,95,0.00,,,0.02,WUHU216DAVISVP2,2013-12-03 12:02:00,
2013-12-03 07:03:00,37.3,36.0,28.97,East,82,0.0,7.0,95,0.00,,,0.02,WUHU216DAVISVP2,2013-12-03 12:03:00,
2013-12-03 07:04:00,37.3,36.0,28.97,ESE,119,1.0,7.0,95,0.00,,,0.02,WUHU216DAVISVP2,2013-12-03 12:04:00,
2013-12-03 07:07:00,37.3,36.0,28.97,ESE,120,0.0,7.0,95,0.00,,,0.02,WUHU216DAVISVP2,2013-12-03 12:07:00,
2013-12-03 07:08:00,37.3,36.0,28.97,ESE,119,0.0,7.0,95,0.00,,,0.02,WUHU216DAVISVP2,2013-12-03 12:08:00,
2013-12-03 07:10:00,37.3,36.0,28.97,ESE,116,4.0,7.0,95,0.00,,,0.02,WUHU216DAVISVP2,2013-12-03 12:10:00,
2013-12-03 07:12:00,37.3,36.0,28.97,SE,132,2.0,7.0,95,0.00,,,0.02,WUHU216DAVISVP2,2013-12-03 12:12:00,
2013-12-03 07:13:00,37.3,36.0,28.97,SE,138,3.0,7.0,95,0.00,,,0.02,WUHU216DAVISVP2,2013-12-03 12:13:00,
2013-12-03 07:15:00,37.3,36.0,28.96,ESE,120,5.0,7.0,95,0.00,,,0.02,WUHU216DAVISVP2,2013-12-03 12:15:00,
2013-12-03 07:18:00,37.3,36.0,28.97,SE,127,1.0,7.0,95,0.00,,,0.02,WUHU216DAVISVP2,2013-12-03 12:18:00,
2013-12-03 07:20:00,37.3,36.0,28.97,SE,127,0.0,7.0,95,0.00,,,0.02,WUHU216DAVISVP2,2013-12-03 12:20:00,
2013-12-03 07:23:00,37.4,36.1,28.97,SE,128,3.0,7.0,95,0.00,,,0.02,WUHU216DAVISVP2,2013-12-03 12:23:00,
2013-12-03 07:24:00,37.3,36.0,28.97,SE,128,0.0,7.0,95,0.00,,,0.02,WUHU216DAVISVP2,2013-12-03 12:24:00,
2013-12-03 07:26:00,37.4,36.1,28.97,ESE,116,1.0,7.0,95,0.00,,,0.02,WUHU216DAVISVP2,2013-12-03 12:26:00,
2013-12-03 07:28:00,37.4,36.1,28.97,ESE,120,0.0,7.0,95,0.00,,,0.02,WUHU216DAVISVP2,2013-12-03 12:28:00,
2013-12-03 07:29:00,37.3,36.0,28.97,ESE,120,0.0,7.0,95,0.00,,,0.02,WUHU216DAVISVP2,2013-12-03 12:29:00,
2013-12-03 07:30:00,37.3,36.0,28.97,ESE,120,2.0,7.0,95,0.00,,,0.02,WUHU216DAVISVP2,2013-12-03 12:30:00,
2013-12-03 07:31:00,37.4,36.1,28.97,ESE,121,0.0,7.0,95,0.00,,,0.02,WUHU216DAVISVP2,2013-12-03 12:31:00,
2013-12-03 07:33:00,37.4,36.1,28.96,SE,124,4.0,7.0,95,0.00,,,0.02,WUHU216DAVISVP2,2013-12-03 12:33:00,
2013-12-03 07:34:00,37.4,36.1,28.97,SE,125,0.0,7.0,95,0.00,,,0.02,WUHU216DAVISVP2,2013-12-03 12:34:00,
2013-12-03 07:35:00,37.4,36.1,28.97,SE,140,4.0,6.0,95,0.00,,,0.02,WUHU216DAVISVP2,2013-12-03 12:35:00,
2013-12-03 07:36:00,37.4,36.1,28.96,SE,142,1.0,6.0,95,0.00,,,0.02,WUHU216DAVISVP2,2013-12-03 12:36:00,
2013-12-03 07:38:00,37.4,36.1,28.96,SE,142,0.0,6.0,95,0.00,,,0.02,WUHU216DAVISVP2,2013-12-03 12:38:00,
2013-12-03 07:39:00,37.4,36.1,28.96,SE,133,3.0,6.0,95,0.00,,,0.02,WUHU216DAVISVP2,2013-12-03 12:39:00,
2013-12-03 07:40:00,37.5,36.2,28.96,SE,136,2.0,6.0,95,0.00,,,0.02,WUHU216DAVISVP2,2013-12-03 12:40:00,
2013-12-03 07:41:00,37.4,36.1,28.96,SE,139,0.0,6.0,95,0.00,,,0.02,WUHU216DAVISVP2,2013-12-03 12:41:00,
2013-12-03 07:43:00,37.5,36.2,28.96,SSE,162,0.0,7.0,95,0.00,,,0.02,WUHU216DAVISVP2,2013-12-03 12:43:00,
2013-12-03 07:44:00,37.5,36.2,28.96,SE,135,1.0,7.0,95,0.00,,,0.02,WUHU216DAVISVP2,2013-12-03 12:44:00,
2013-12-03 07:45:00,37.5,36.2,28.96,SE,131,0.0,7.0,95,0.00,,,0.02,WUHU216DAVISVP2,2013-12-03 12:45:00,
2013-12-03 07:46:00,37.5,36.2,28.96,ESE,120,0.0,7.0,95,0.00,,,0.02,WUHU216DAVISVP2,2013-12-03 12:46:00,
2013-12-03 07:47:00,37.5,36.2,28.96,ESE,120,0.0,7.0,95,0.00,,,0.02,WUHU216DAVISVP2,2013-12-03 12:47:00,
2013-12-03 07:48:00,37.5,36.2,28.96,ESE,116,1.0,7.0,95,0.00,,,0.02,WUHU216DAVISVP2,2013-12-03 12:48:00,
2013-12-03 07:49:00,37.5,36.2,28.96,ESE,116,0.0,7.0,95,0.00,,,0.02,WUHU216DAVISVP2,2013-12-03 12:49:00,
2013-12-03 07:51:00,37.5,36.2,28.97,ESE,104,2.0,7.0,95,0.00,,,0.02,WUHU216DAVISVP2,2013-12-03 12:51:00,
2013-12-03 07:52:00,37.5,36.2,28.97,East,99,0.0,7.0,95,0.00,,,0.02,WUHU216DAVISVP2,2013-12-03 12:52:00,
2013-12-03 07:53:00,37.5,36.2,28.97,SE,127,4.0,7.0,95,0.00,,,0.02,WUHU216DAVISVP2,2013-12-03 12:53:00,
2013-12-03 07:54:00,37.5,36.2,28.97,SE,141,4.0,7.0,95,0.00,,,0.02,WUHU216DAVISVP2,2013-12-03 12:54:00,
2013-12-03 07:55:00,37.6,36.3,28.97,SSE,154,0.0,7.0,95,0.00,,,0.02,WUHU216DAVISVP2,2013-12-03 12:55:00,
2013-12-03 07:56:00,37.6,36.3,28.97,SE,131,3.0,7.0,95,0.00,,,0.02,WUHU216DAVISVP2,2013-12-03 12:56:00,
2013-12-03 07:57:00,37.6,36.3,28.97,SSE,161,0.0,7.0,95,0.00,,,0.02,WUHU216DAVISVP2,2013-12-03 12:57:00,
2013-12-03 07:59:00,37.6,36.3,28.97,SE,133,0.0,7.0,95,0.00,,,0.02,WUHU216DAVISVP2,2013-12-03 12:59:00,
2013-12-03 08:00:00,37.6,36.3,28.96,ESE,116,2.0,7.0,95,0.00,,,0.02,WUHU216DAVISVP2,2013-12-03 13:00:00,
2013-12-03 08:01:00,37.6,36.3,28.96,SE,131,1.0,7.0,95,0.00,,,0.02,WUHU216DAVISVP2,2013-12-03 13:01:00,
2013-12-03 08:02:00,37.6,36.3,28.97,SE,135,0.0,6.0,95,0.00,,,0.02,WUHU216DAVISVP2,2013-12-03 13:02:00,
2013-12-03 08:03:00,37.7,36.4,28.97,SE,136,0.0,6.0,95,0.00,,,0.02,WUHU216DAVISVP2,2013-12-03 13:03:00,
2013-12-03 08:04:00,37.7,36.4,28.97,SE,141,5.0,6.0,95,0.00,,,0.02,WUHU216DAVISVP2,2013-12-03 13:04:00,
2013-12-03 08:05:00,37.7,36.4,28.97,SE,139,3.0,6.0,95,0.00,,,0.02,WUHU216DAVISVP2,2013-12-03 13:05:00,
2013-12-03 08:06:00,37.7,36.4,28.97,SE,146,2.0,6.0,95,0.00,,,0.02,WUHU216DAVISVP2,2013-12-03 13:06:00,
2013-12-03 08:08:00,37.7,36.4,28.97,SSE,149,4.0,6.0,95,0.00,,,0.02,WUHU216DAVISVP2,2013-12-03 13:08:00,
2013-12-03 08:09:00,37.7,36.4,28.97,SSE,158,0.0,6.0,95,0.00,,,0.02,WUHU216DAVISVP2,2013-12-03 13:09:00,
2013-12-03 08:10:00,37.7,36.4,28.97,SSE,158,2.0,6.0,95,0.00,,,0.02,WUHU216DAVISVP2,2013-12-03 13:10:00,
2013-12-03 08:11:00,37.7,36.4,28.96,SE,141,1.0,6.0,95,0.00,,,0.02,WUHU216DAVISVP2,2013-12-03 13:11:00,
2013-12-03 08:12:00,37.7,36.4,28.96,SE,141,0.0,6.0,95,0.00,,,0.02,WUHU216DAVISVP2,2013-12-03 13:12:00,
2013-12-03 08:13:00,37.8,36.5,28.96,SE,141,0.0,6.0,95,0.00,,,0.02,WUHU216DAVISVP2,2013-12-03 13:13:00,
2013-12-03 08:14:00,37.8,36.5,28.97,SE,135,0.0,6.0,95,0.00,,,0.02,WUHU216DAVISVP2,2013-12-03 13:14:00,
2013-12-03 08:15:00,37.8,36.5,28.96,SE,125,3.0,6.0,95,0.00,,,0.02,WUHU216DAVISVP2,2013-12-03 13:15:00,
2013-12-03 08:16:00,37.8,36.5,28.96,SE,135,4.0,6.0,95,0.00,,,0.02,WUHU216DAVISVP2,2013-12-03 13:16:00,
2013-12-03 08:17:00,37.8,36.5,28.96,ESE,122,5.0,6.0,95,0.00,,,0.02,WUHU216DAVISVP2,2013-12-03 13:17:00,
2013-12-03 08:18:00,37.8,36.5,28.96,SE,127,1.0,6.0,95,0.00,,,0.02,WUHU216DAVISVP2,2013-12-03 13:18:00,
2013-12-03 08:19:00,37.8,36.5,28.96,SE,127,0.0,6.0,95,0.00,,,0.02,WUHU216DAVISVP2,2013-12-03 13:19:00,
2013-12-03 08:20:00,37.8,36.5,28.96,ESE,123,0.0,6.0,95,0.00,,,0.02,WUHU216DAVISVP2,2013-12-03 13:20:00,
2013-12-03 08:21:00,37.8,36.5,28.96,ESE,123,4.0,6.0,95,0.00,,,0.02,WUHU216DAVISVP2,2013-12-03 13:21:00,
2013-12-03 08:22:00,37.8,36.5,28.96,SE,135,4.0,6.0,95,0.00,,,0.02,WUHU216DAVISVP2,2013-12-03 13:22:00,
2013-12-03 08:24:00,37.8,36.5,28.96,SSE,159,0.0,6.0,95,0.00,,,0.02,WUHU216DAVISVP2,2013-12-03 13:24:00,
2013-12-03 08:25:00,37.8,36.5,28.96,SE,136,1.0,8.0,95,0.00,,,0.02,WUHU216DAVISVP2,2013-12-03 13:25:00,
2013-12-03 08:26:00,37.8,36.5,28.96,ESE,113,2.0,8.0,95,0.00,,,0.02,WUHU216DAVISVP2,2013-12-03 13:26:00,
2013-12-03 08:27:00,37.8,36.5,28.96,ESE,118,4.0,8.0,95,0.00,,,0.02,WUHU216DAVISVP2,2013-12-03 13:27:00,
2013-12-03 08:29:00,37.9,36.6,28.96,SSE,155,3.0,8.0,95,0.00,,,0.02,WUHU216DAVISVP2,2013-12-03 13:29:00,
2013-12-03 08:30:00,37.8,36.5,28.96,SSE,155,4.0,8.0,95,0.00,,,0.02,WUHU216DAVISVP2,2013-12-03 13:30:00,
2013-12-03 08:31:00,37.8,36.5,28.96,SSE,155,0.0,8.0,95,0.00,,,0.02,WUHU216DAVISVP2,2013-12-03 13:31:00,
2013-12-03 08:32:00,37.8,36.5,28.96,ESE,120,4.0,8.0,95,0.00,,,0.02,WUHU216DAVISVP2,2013-12-03 13:32:00,
2013-12-03 08:33:00,37.9,36.6,28.96,SSE,156,0.0,8.0,95,0.00,,,0.02,WUHU216DAVISVP2,2013-12-03 13:33:00,
2013-12-03 08:34:00,37.9,36.6,28.96,SSE,156,0.0,8.0,95,0.00,,,0.02,WUHU216DAVISVP2,2013-12-03 13:34:00,
2013-12-03 08:35:00,37.9,36.6,28.96,SSE,156,0.0,8.0,95,0.00,,,0.02,WUHU216DAVISVP2,2013-12-03 13:35:00,
2013-12-03 08:37:00,37.9,36.6,28.97,SSE,154,7.0,8.0,95,0.00,,,0.02,WUHU216DAVISVP2,2013-12-03 13:37:00,
2013-12-03 08:39:00,37.9,36.6,28.97,SSE,154,7.0,9.0,95,0.00,,,0.02,WUHU216DAVISVP2,2013-12-03 13:39:00,
2013-12-03 08:40:00,37.9,36.6,28.97,SSE,158,0.0,9.0,95,0.00,,,0.02,WUHU216DAVISVP2,2013-12-03 13:40:00,
2013-12-03 08:42:00,37.9,36.6,28.97,South,172,4.0,9.0,95,0.00,,,0.02,WUHU216DAVISVP2,2013-12-03 13:42:00,
2013-12-03 08:44:00,37.9,36.6,28.97,SSE,147,4.0,9.0,95,0.00,,,0.02,WUHU216DAVISVP2,2013-12-03 13:44:00,
2013-12-03 08:45:00,37.9,36.6,28.97,SE,143,2.0,9.0,95,0.00,,,0.02,WUHU216DAVISVP2,2013-12-03 13:45:00,
2013-12-03 08:46:00,37.9,36.6,28.97,SE,143,0.0,9.0,95,0.00,,,0.02,WUHU216DAVISVP2,2013-12-03 13:46:00,
2013-12-03 08:47:00,37.9,36.3,28.96,SSE,166,4.0,9.0,94,0.00,,,0.02,WUHU216DAVISVP2,2013-12-03 13:47:00,
2013-12-03 08:48:00,37.9,36.3,28.96,SSE,159,3.0,9.0,94,0.00,,,0.02,WUHU216DAVISVP2,2013-12-03 13:48:00,
2013-12-03 08:49:00,37.9,36.3,28.96,SSE,162,1.0,9.0,94,0.00,,,0.02,WUHU216DAVISVP2,2013-12-03 13:49:00,
2013-12-03 08:51:00,38.0,36.4,28.96,South,174,7.0,9.0,94,0.00,,,0.02,WUHU216DAVISVP2,2013-12-03 13:51:00,
2013-12-03 08:53:00,38.0,36.4,28.97,SSE,156,5.0,9.0,94,0.00,,,0.02,WUHU216DAVISVP2,2013-12-03 13:53:00,
2013-12-03 08:54:00,38.0,36.4,28.96,SSE,152,5.0,9.0,94,0.00,,,0.02,WUHU216DAVISVP2,2013-12-03 13:54:00,
2013-12-03 08:56:00,38.0,36.4,28.97,SSE,159,4.0,9.0,94,0.00,,,0.02,WUHU216DAVISVP2,2013-12-03 13:56:00,
2013-12-03 08:58:00,38.0,36.4,28.97,SSE,152,3.0,9.0,94,0.00,,,0.02,WUHU216DAVISVP2,2013-12-03 13:58:00,
2013-12-03 08:59:00,38.1,36.5,28.97,SSE,154,4.0,8.0,94,0.00,,,0.02,WUHU216DAVISVP2,2013-12-03 13:59:00,
2013-12-03 09:01:00,38.1,36.5,28.97,SSE,166,5.0,8.0,94,0.00,,,0.02,WUHU216DAVISVP2,2013-12-03 14:01:00,
2013-12-03 09:03:00,38.2,36.6,28.96,SSE,152,5.0,8.0,94,0.00,,,0.02,WUHU216DAVISVP2,2013-12-03 14:03:00,
2013-12-03 09:05:00,38.3,37.0,28.96,SSE,150,3.0,8.0,95,0.00,,,0.02,WUHU216DAVISVP2,2013-12-03 14:05:00,
2013-12-03 09:06:00,38.3,37.0,28.96,SSE,149,0.0,8.0,95,0.00,,,0.02,WUHU216DAVISVP2,2013-12-03 14:06:00,
2013-12-03 09:07:00,38.3,37.0,28.96,SSE,149,2.0,8.0,95,0.00,,,0.02,WUHU216DAVISVP2,2013-12-03 14:07:00,
2013-12-03 09:08:00,38.4,37.1,28.96,SSE,147,2.0,8.0,95,0.00,,,0.02,WUHU216DAVISVP2,2013-12-03 14:08:00,
2013-12-03 09:10:00,38.4,37.1,28.96,SSE,147,5.0,8.0,95,0.00,,,0.02,WUHU216DAVISVP2,2013-12-03 14:10:00,
2013-12-03 09:11:00,38.4,37.1,28.96,SE,143,2.0,9.0,95,0.00,,,0.02,WUHU216DAVISVP2,2013-12-03 14:11:00,
2013-12-03 09:12:00,38.5,37.1,28.96,SE,143,0.0,9.0,95,0.00,,,0.02,WUHU216DAVISVP2,2013-12-03 14:12:00,
2013-12-03 09:13:00,38.6,37.2,28.96,SE,143,3.0,9.0,95,0.00,,,0.02,WUHU216DAVISVP2,2013-12-03 14:13:00,
2013-12-03 09:15:00,38.6,37.0,28.96,SE,128,2.0,9.0,94,0.00,,,0.02,WUHU216DAVISVP2,2013-12-03 14:15:00,
2013-12-03 09:16:00,38.6,37.0,28.96,SE,136,5.0,9.0,94,0.00,,,0.02,WUHU216DAVISVP2,2013-12-03 14:16:00,
2013-12-03 09:17:00,38.6,37.0,28.96,SE,137,2.0,9.0,94,0.00,,,0.02,WUHU216DAVISVP2,2013-12-03 14:17:00,
2013-12-03 09:18:00,38.7,37.1,28.96,SE,137,0.0,9.0,94,0.00,,,0.02,WUHU216DAVISVP2,2013-12-03 14:18:00,
2013-12-03 09:20:00,38.7,37.1,28.95,ESE,113,0.0,9.0,94,0.00,,,0.02,WUHU216DAVISVP2,2013-12-03 14:20:00,
2013-12-03 09:21:00,38.7,37.1,28.96,ESE,114,0.0,9.0,94,0.00,,,0.02,WUHU216DAVISVP2,2013-12-03 14:21:00,
2013-12-03 09:22:00,38.7,37.1,28.95,ESE,114,0.0,9.0,94,0.00,,,0.02,WUHU216DAVISVP2,2013-12-03 14:22:00,
2013-12-03 09:23:00,38.7,37.1,28.96,ESE,118,2.0,9.0,94,0.00,,,0.02,WUHU216DAVISVP2,2013-12-03 14:23:00,
2013-12-03 09:25:00,38.8,37.2,28.96,ESE,118,0.0,9.0,94,0.00,,,0.02,WUHU216DAVISVP2,2013-12-03 14:25:00,
2013-12-03 09:26:00,38.8,37.2,28.96,ESE,118,0.0,9.0,94,0.00,,,0.02,WUHU216DAVISVP2,2013-12-03 14:26:00,
2013-12-03 09:27:00,38.8,37.2,28.96,ESE,118,0.0,9.0,94,0.00,,,0.02,WUHU216DAVISVP2,2013-12-03 14:27:00,
2013-12-03 09:28:00,38.8,37.2,28.96,SE,140,4.0,9.0,94,0.00,,,0.02,WUHU216DAVISVP2,2013-12-03 14:28:00,
2013-12-03 09:31:00,38.9,37.3,28.96,South,175,1.0,10.0,94,0.00,,,0.02,WUHU216DAVISVP2,2013-12-03 14:31:00,
2013-12-03 09:32:00,38.9,37.3,28.96,South,175,0.0,10.0,94,0.00,,,0.02,WUHU216DAVISVP2,2013-12-03 14:32:00,
2013-12-03 09:34:00,38.9,37.3,28.97,SSE,162,8.0,10.0,94,0.00,,,0.02,WUHU216DAVISVP2,2013-12-03 14:34:00,
2013-12-03 09:36:00,39.0,37.4,28.97,SSE,153,3.0,10.0,94,0.00,,,0.02,WUHU216DAVISVP2,2013-12-03 14:36:00,
2013-12-03 09:37:00,39.0,37.4,28.97,SSE,153,2.0,10.0,94,0.00,,,0.02,WUHU216DAVISVP2,2013-12-03 14:37:00,
2013-12-03 09:39:00,39.1,37.5,28.97,SSE,153,0.0,10.0,94,0.00,,,0.02,WUHU216DAVISVP2,2013-12-03 14:39:00,
2013-12-03 09:42:00,39.2,37.6,28.97,SSE,158,1.0,10.0,94,0.00,,,0.02,WUHU216DAVISVP2,2013-12-03 14:42:00,
2013-12-03 09:43:00,39.2,37.6,28.97,SSE,158,0.0,10.0,94,0.00,,,0.02,WUHU216DAVISVP2,2013-12-03 14:43:00,
2013-12-03 09:44:00,39.2,37.6,28.97,SSE,158,4.0,10.0,94,0.00,,,0.02,WUHU216DAVISVP2,2013-12-03 14:44:00,
2013-12-03 09:47:00,39.3,37.7,28.97,SSE,158,0.0,10.0,94,0.00,,,0.02,WUHU216DAVISVP2,2013-12-03 14:47:00,
2013-12-03 09:48:00,39.4,37.8,28.97,SSE,158,0.0,8.0,94,0.00,,,0.02,WUHU216DAVISVP2,2013-12-03 14:48:00,
2013-12-03 09:49:00,39.4,37.8,28.97,South,175,7.0,8.0,94,0.00,,,0.02,WUHU216DAVISVP2,2013-12-03 14:49:00,
2013-12-03 09:52:00,39.4,37.8,28.97,SSE,153,4.0,9.0,94,0.00,,,0.02,WUHU216DAVISVP2,2013-12-03 14:52:00,
2013-12-03 09:53:00,39.5,37.9,28.97,SSE,160,5.0,9.0,94,0.00,,,0.02,WUHU216DAVISVP2,2013-12-03 14:53:00,
2013-12-03 09:54:00,39.5,37.9,28.97,SSE,155,6.0,9.0,94,0.00,,,0.02,WUHU216DAVISVP2,2013-12-03 14:54:00,
2013-12-03 09:57:00,39.6,38.0,28.98,SSE,162,6.0,9.0,94,0.00,,,0.02,WUHU216DAVISVP2,2013-12-03 14:57:00,
2013-12-03 09:58:00,39.6,38.0,28.98,SE,143,4.0,9.0,94,0.00,,,0.02,WUHU216DAVISVP2,2013-12-03 14:58:00,
2013-12-03 09:59:00,39.6,38.0,28.98,SSE,156,2.0,9.0,94,0.00,,,0.02,WUHU216DAVISVP2,2013-12-03 14:59:00,
2013-12-03 10:03:00,39.8,38.2,28.98,SSE,160,8.0,10.0,94,0.00,,,0.02,WUHU216DAVISVP2,2013-12-03 15:03:00,
2013-12-03 10:04:00,39.8,38.2,28.98,SSE,159,5.0,10.0,94,0.00,,,0.02,WUHU216DAVISVP2,2013-12-03 15:04:00,
2013-12-03 10:08:00,40.0,38.4,28.98,SSE,162,0.0,10.0,94,0.00,,,0.02,WUHU216DAVISVP2,2013-12-03 15:08:00,
2013-12-03 10:09:00,40.0,38.4,28.98,South,172,5.0,10.0,94,0.00,,,0.02,WUHU216DAVISVP2,2013-12-03 15:09:00,
2013-12-03 10:13:00,40.2,38.6,28.99,SSW,203,3.0,10.0,94,0.00,,,0.02,WUHU216DAVISVP2,2013-12-03 15:13:00,
2013-12-03 10:14:00,40.2,38.6,28.99,SSW,200,1.0,10.0,94,0.00,,,0.02,WUHU216DAVISVP2,2013-12-03 15:14:00,
2013-12-03 10:15:00,40.3,38.7,28.99,SSW,195,5.0,10.0,94,0.00,,,0.02,WUHU216DAVISVP2,2013-12-03 15:15:00,
2013-12-03 10:18:00,40.4,38.8,28.99,South,187,1.0,10.0,94,0.00,,,0.02,WUHU216DAVISVP2,2013-12-03 15:18:00,
2013-12-03 10:19:00,40.4,38.8,28.99,South,187,0.0,10.0,94,0.00,,,0.02,WUHU216DAVISVP2,2013-12-03 15:19:00,
2013-12-03 10:20:00,40.5,38.9,28.99,South,185,5.0,10.0,94,0.00,,,0.02,WUHU216DAVISVP2,2013-12-03 15:20:00,
2013-12-03 10:24:00,40.6,39.0,28.99,SSE,168,4.0,10.0,94,0.00,,,0.02,WUHU216DAVISVP2,2013-12-03 15:24:00,
2013-12-03 10:25:00,40.7,39.1,28.99,SSE,168,5.0,10.0,94,0.00,,,0.02,WUHU216DAVISVP2,2013-12-03 15:25:00,
2013-12-03 10:26:00,40.7,39.1,28.99,SSE,167,0.0,7.0,94,0.00,,,0.02,WUHU216DAVISVP2,2013-12-03 15:26:00,
2013-12-03 10:29:00,40.8,39.2,29.00,SSE,162,6.0,8.0,94,0.00,,,0.02,WUHU216DAVISVP2,2013-12-03 15:29:00,
2013-12-03 10:30:00,40.9,39.3,28.99,SSE,168,7.0,8.0,94,0.00,,,0.02,WUHU216DAVISVP2,2013-12-03 15:30:00,
2013-12-03 10:31:00,40.9,39.3,28.99,SSE,158,3.0,8.0,94,0.00,,,0.02,WUHU216DAVISVP2,2013-12-03 15:31:00,
2013-12-03 10:34:00,41.1,39.5,28.99,SSE,160,6.0,8.0,94,0.00,,,0.02,WUHU216DAVISVP2,2013-12-03 15:34:00,
2013-12-03 10:35:00,41.2,39.6,28.99,SSE,166,5.0,8.0,94,0.00,,,0.02,WUHU216DAVISVP2,2013-12-03 15:35:00,
2013-12-03 10:36:00,41.2,39.6,28.99,South,170,3.0,8.0,94,0.00,,,0.02,WUHU216DAVISVP2,2013-12-03 15:36:00,
2013-12-03 10:37:00,41.3,39.7,29.00,South,170,1.0,8.0,94,0.00,,,0.02,WUHU216DAVISVP2,2013-12-03 15:37:00,
2013-12-03 10:39:00,41.4,39.8,29.00,South,170,4.0,8.0,94,0.00,,,0.02,WUHU216DAVISVP2,2013-12-03 15:39:00,
2013-12-03 10:40:00,41.5,39.9,29.00,South,172,5.0,8.0,94,0.00,,,0.02,WUHU216DAVISVP2,2013-12-03 15:40:00,
2013-12-03 10:41:00,41.5,39.9,29.00,SSE,168,7.0,8.0,94,0.00,,,0.02,WUHU216DAVISVP2,2013-12-03 15:41:00,
2013-12-03 10:42:00,41.6,40.0,28.99,South,177,5.0,8.0,94,0.00,,,0.02,WUHU216DAVISVP2,2013-12-03 15:42:00,
2013-12-03 10:44:00,41.7,39.8,29.00,SSE,162,0.0,8.0,93,0.00,,,0.02,WUHU216DAVISVP2,2013-12-03 15:44:00,
2013-12-03 10:45:00,41.8,39.9,29.00,South,169,0.0,8.0,93,0.00,,,0.02,WUHU216DAVISVP2,2013-12-03 15:45:00,
2013-12-03 10:46:00,41.8,39.9,29.00,South,169,4.0,8.0,93,0.00,,,0.02,WUHU216DAVISVP2,2013-12-03 15:46:00,
2013-12-03 10:47:00,41.9,40.0,29.00,SSE,168,1.0,8.0,93,0.00,,,0.02,WUHU216DAVISVP2,2013-12-03 15:47:00,
2013-12-03 10:49:00,42.0,40.1,29.00,South,181,7.0,8.0,93,0.00,,,0.02,WUHU216DAVISVP2,2013-12-03 15:49:00,
2013-12-03 10:50:00,42.1,40.2,28.99,South,169,5.0,8.0,93,0.00,,,0.02,WUHU216DAVISVP2,2013-12-03 15:50:00,
2013-12-03 10:51:00,42.2,40.3,28.99,SSE,168,4.0,8.0,93,0.00,,,0.02,WUHU216DAVISVP2,2013-12-03 15:51:00,
2013-12-03 10:52:00,42.3,40.4,28.99,South,174,5.0,8.0,93,0.00,,,0.02,WUHU216DAVISVP2,2013-12-03 15:52:00,
2013-12-03 10:53:00,42.3,40.4,28.99,SSE,166,6.0,8.0,93,0.00,,,0.02,WUHU216DAVISVP2,2013-12-03 15:53:00,
2013-12-03 10:54:00,42.4,40.5,28.99,SSE,160,5.0,8.0,93,0.00,,,0.02,WUHU216DAVISVP2,2013-12-03 15:54:00,
2013-12-03 10:55:00,42.5,40.6,28.99,SSE,166,2.0,9.0,93,0.00,,,0.02,WUHU216DAVISVP2,2013-12-03 15:55:00,
2013-12-03 10:56:00,42.5,40.6,28.99,SSE,159,2.0,9.0,93,0.00,,,0.02,WUHU216DAVISVP2,2013-12-03 15:56:00,
2013-12-03 10:58:00,42.7,40.8,28.99,SSE,147,6.0,9.0,93,0.00,,,0.02,WUHU216DAVISVP2,2013-12-03 15:58:00,
2013-12-03 10:59:00,42.7,40.8,28.99,SSE,152,5.0,9.0,93,0.00,,,0.02,WUHU216DAVISVP2,2013-12-03 15:59:00,
2013-12-03 11:01:00,42.8,40.9,28.99,SSE,153,5.0,9.0,93,0.00,,,0.02,WUHU216DAVISVP2,2013-12-03 16:01:00,
2013-12-03 11:02:00,42.9,41.0,28.99,SE,134,0.0,9.0,93,0.00,,,0.02,WUHU216DAVISVP2,2013-12-03 16:02:00,
2013-12-03 11:03:00,42.9,41.0,28.99,SSE,162,4.0,9.0,93,0.00,,,0.02,WUHU216DAVISVP2,2013-12-03 16:03:00,
2013-12-03 11:04:00,43.1,41.2,28.99,SE,131,0.0,9.0,93,0.00,,,0.02,WUHU216DAVISVP2,2013-12-03 16:04:00,
2013-12-03 11:06:00,43.2,41.3,28.99,SSE,151,2.0,9.0,93,0.00,,,0.02,WUHU216DAVISVP2,2013-12-03 16:06:00,
2013-12-03 11:07:00,43.2,41.3,28.99,SSE,152,4.0,9.0,93,0.00,,,0.02,WUHU216DAVISVP2,2013-12-03 16:07:00,
2013-12-03 11:08:00,43.3,41.4,28.99,SSE,149,0.0,9.0,93,0.00,,,0.02,WUHU216DAVISVP2,2013-12-03 16:08:00,
2013-12-03 11:09:00,43.4,41.5,28.99,SSE,149,0.0,9.0,93,0.00,,,0.02,WUHU216DAVISVP2,2013-12-03 16:09:00,
2013-12-03 11:11:00,43.6,41.7,28.99,SSE,166,4.0,9.0,93,0.00,,,0.02,WUHU216DAVISVP2,2013-12-03 16:11:00,
2013-12-03 11:12:00,43.6,41.7,28.99,SSE,160,6.0,9.0,93,0.00,,,0.02,WUHU216DAVISVP2,2013-12-03 16:12:00,
2013-12-03 11:13:00,43.7,41.8,28.99,SSE,164,2.0,8.0,93,0.00,,,0.02,WUHU216DAVISVP2,2013-12-03 16:13:00,
2013-12-03 11:15:00,43.8,41.6,29.00,SSE,160,0.0,8.0,92,0.00,,,0.02,WUHU216DAVISVP2,2013-12-03 16:15:00,
2013-12-03 11:16:00,43.9,41.7,28.99,SSE,158,4.0,8.0,92,0.00,,,0.02,WUHU216DAVISVP2,2013-12-03 16:16:00,
2013-12-03 11:17:00,44.0,41.8,29.00,SSW,202,0.0,8.0,92,0.00,,,0.02,WUHU216DAVISVP2,2013-12-03 16:17:00,
2013-12-03 11:18:00,44.1,41.9,28.99,SSW,203,1.0,8.0,92,0.00,,,0.02,WUHU216DAVISVP2,2013-12-03 16:18:00,
2013-12-03 11:19:00,44.1,41.9,28.99,SSE,160,1.0,8.0,92,0.00,,,0.02,WUHU216DAVISVP2,2013-12-03 16:19:00,
2013-12-03 11:20:00,44.2,42.0,28.99,SSE,162,5.0,8.0,92,0.00,,,0.02,WUHU216DAVISVP2,2013-12-03 16:20:00,
2013-12-03 11:21:00,44.3,42.1,28.99,SSW,197,2.0,8.0,92,0.00,,,0.02,WUHU216DAVISVP2,2013-12-03 16:21:00,
2013-12-03 11:22:00,44.3,42.1,28.99,South,180,1.0,11.0,92,0.00,,,0.02,WUHU216DAVISVP2,2013-12-03 16:22:00,
2013-12-03 11:23:00,44.4,42.2,28.99,South,171,5.0,11.0,92,0.00,,,0.02,WUHU216DAVISVP2,2013-12-03 16:23:00,
2013-12-03 11:24:00,44.4,42.2,28.99,South,174,1.0,11.0,92,0.00,,,0.02,WUHU216DAVISVP2,2013-12-03 16:24:00,
2013-12-03 11:25:00,44.4,42.2,28.99,South,175,4.0,11.0,92,0.00,,,0.02,WUHU216DAVISVP2,2013-12-03 16:25:00,
2013-12-03 11:26:00,44.5,42.3,28.99,South,172,4.0,11.0,92,0.00,,,0.02,WUHU216DAVISVP2,2013-12-03 16:26:00,
2013-12-03 11:27:00,44.5,42.3,28.99,SSE,164,2.0,11.0,92,0.00,,,0.02,WUHU216DAVISVP2,2013-12-03 16:27:00,
2013-12-03 11:28:00,44.6,42.4,28.99,SSE,150,5.0,11.0,92,0.00,,,0.02,WUHU216DAVISVP2,2013-12-03 16:28:00,
2013-12-03 11:29:00,44.6,42.4,28.99,South,177,8.0,11.0,92,0.00,,,0.02,WUHU216DAVISVP2,2013-12-03 16:29:00,
2013-12-03 11:30:00,44.6,42.1,28.99,South,185,1.0,11.0,91,0.00,,,0.02,WUHU216DAVISVP2,2013-12-03 16:30:00,
2013-12-03 11:31:00,44.7,42.2,28.99,South,186,0.0,11.0,91,0.00,,,0.02,WUHU216DAVISVP2,2013-12-03 16:31:00,
2013-12-03 11:33:00,44.7,42.2,28.98,SSE,166,7.0,11.0,91,0.00,,,0.02,WUHU216DAVISVP2,2013-12-03 16:33:00,
2013-12-03 11:34:00,44.8,42.6,28.98,South,189,1.0,11.0,92,0.00,,,0.02,WUHU216DAVISVP2,2013-12-03 16:34:00,
2013-12-03 11:35:00,44.8,42.3,28.98,South,177,1.0,11.0,91,0.00,,,0.02,WUHU216DAVISVP2,2013-12-03 16:35:00,
2013-12-03 11:37:00,44.9,42.4,28.98,South,179,5.0,11.0,91,0.00,,,0.02,WUHU216DAVISVP2,2013-12-03 16:37:00,
2013-12-03 11:38:00,44.9,42.4,28.99,South,180,6.0,11.0,91,0.00,,,0.02,WUHU216DAVISVP2,2013-12-03 16:38:00,
2013-12-03 11:39:00,44.9,42.4,28.98,SSW,206,4.0,11.0,91,0.00,,,0.02,WUHU216DAVISVP2,2013-12-03 16:39:00,
2013-12-03 11:40:00,45.0,42.5,28.98,SSW,206,3.0,11.0,91,0.00,,,0.02,WUHU216DAVISVP2,2013-12-03 16:40:00,
2013-12-03 11:42:00,45.0,42.5,28.99,SSE,161,2.0,10.0,91,0.00,,,0.02,WUHU216DAVISVP2,2013-12-03 16:42:00,
2013-12-03 11:43:00,45.1,42.6,28.98,SSE,161,5.0,10.0,91,0.00,,,0.02,WUHU216DAVISVP2,2013-12-03 16:43:00,
2013-12-03 11:44:00,45.1,42.6,28.98,SE,141,2.0,10.0,91,0.00,,,0.02,WUHU216DAVISVP2,2013-12-03 16:44:00,
2013-12-03 11:45:00,45.1,42.6,28.98,South,172,6.0,10.0,91,0.00,,,0.02,WUHU216DAVISVP2,2013-12-03 16:45:00,
2013-12-03 11:46:00,45.1,42.6,28.98,SSE,168,5.0,10.0,91,0.00,,,0.02,WUHU216DAVISVP2,2013-12-03 16:46:00,
2013-12-03 11:47:00,45.2,42.7,28.98,South,176,3.0,10.0,91,0.00,,,0.02,WUHU216DAVISVP2,2013-12-03 16:47:00,
2013-12-03 11:49:00,45.2,42.7,28.98,SSE,166,9.0,10.0,91,0.00,,,0.02,WUHU216DAVISVP2,2013-12-03 16:49:00,
2013-12-03 11:50:00,45.2,42.7,28.98,SSW,197,0.0,10.0,91,0.00,,,0.02,WUHU216DAVISVP2,2013-12-03 16:50:00,
2013-12-03 11:51:00,45.3,42.8,28.98,South,182,5.0,10.0,91,0.00,,,0.02,WUHU216DAVISVP2,2013-12-03 16:51:00,
2013-12-03 11:53:00,45.5,43.0,28.98,South,178,0.0,10.0,91,0.00,,,0.02,WUHU216DAVISVP2,2013-12-03 16:53:00,
2013-12-03 11:54:00,45.5,43.0,28.98,SSE,147,1.0,10.0,91,0.00,,,0.02,WUHU216DAVISVP2,2013-12-03 16:54:00,
2013-12-03 11:55:00,45.6,43.1,28.98,SSE,163,6.0,10.0,91,0.00,,,0.02,WUHU216DAVISVP2,2013-12-03 16:55:00,
2013-12-03 11:56:00,45.7,43.2,28.98,South,169,11.0,11.0,91,0.00,,,0.02,WUHU216DAVISVP2,2013-12-03 16:56:00,
2013-12-03 11:58:00,46.0,43.5,28.98,South,189,4.0,11.0,91,0.00,,,0.02,WUHU216DAVISVP2,2013-12-03 16:58:00,
2013-12-03 11:59:00,46.0,43.5,28.98,SW,222,0.0,11.0,91,0.00,,,0.02,WUHU216DAVISVP2,2013-12-03 16:59:00,
2013-12-03 12:00:00,46.1,43.6,28.98,South,191,2.0,12.0,91,0.00,,,0.02,WUHU216DAVISVP2,2013-12-03 17:00:00,
2013-12-03 12:01:00,46.2,43.7,28.98,South,189,2.0,12.0,91,0.00,,,0.02,WUHU216DAVISVP2,2013-12-03 17:01:00,
2013-12-03 12:03:00,46.6,44.1,28.98,South,175,7.0,12.0,91,0.00,,,0.02,WUHU216DAVISVP2,2013-12-03 17:03:00,
2013-12-03 12:04:00,46.7,44.2,28.98,SSW,207,2.0,12.0,91,0.00,,,0.02,WUHU216DAVISVP2,2013-12-03 17:04:00,
2013-12-03 12:05:00,46.7,44.2,28.98,South,179,5.0,12.0,91,0.00,,,0.02,WUHU216DAVISVP2,2013-12-03 17:05:00,
2013-12-03 12:06:00,46.9,44.4,28.98,WSW,238,4.0,12.0,91,0.00,,,0.02,WUHU216DAVISVP2,2013-12-03 17:06:00,
2013-12-03 12:08:00,47.1,44.6,28.98,SSW,208,5.0,12.0,91,0.00,,,0.02,WUHU216DAVISVP2,2013-12-03 17:08:00,
2013-12-03 12:09:00,47.2,44.7,28.97,South,190,1.0,14.0,91,0.00,,,0.02,WUHU216DAVISVP2,2013-12-03 17:09:00,
2013-12-03 12:10:00,47.3,44.5,28.97,South,170,8.0,14.0,90,0.00,,,0.02,WUHU216DAVISVP2,2013-12-03 17:10:00,
2013-12-03 12:11:00,47.5,44.7,28.97,SSE,166,7.0,14.0,90,0.00,,,0.02,WUHU216DAVISVP2,2013-12-03 17:11:00,
2013-12-03 12:13:00,47.7,44.9,28.97,SSW,195,1.0,15.0,90,0.00,,,0.02,WUHU216DAVISVP2,2013-12-03 17:13:00,
2013-12-03 12:14:00,47.7,44.9,28.97,SW,220,12.0,15.0,90,0.00,,,0.02,WUHU216DAVISVP2,2013-12-03 17:14:00,
2013-12-03 12:15:00,47.8,45.0,28.97,SW,220,3.0,15.0,90,0.00,,,0.02,WUHU216DAVISVP2,2013-12-03 17:15:00,
2013-12-03 12:17:00,48.0,45.2,28.97,SW,224,4.0,15.0,90,0.00,,,0.02,WUHU216DAVISVP2,2013-12-03 17:17:00,
2013-12-03 12:19:00,48.1,45.0,28.97,SW,224,7.0,15.0,89,0.00,,,0.02,WUHU216DAVISVP2,2013-12-03 17:19:00,
2013-12-03 12:20:00,48.0,44.9,28.97,SSW,199,2.0,15.0,89,0.00,,,0.02,WUHU216DAVISVP2,2013-12-03 17:20:00,
2013-12-03 12:21:00,48.0,44.9,28.97,SSW,213,5.0,15.0,89,0.00,,,0.02,WUHU216DAVISVP2,2013-12-03 17:21:00,
2013-12-03 12:22:00,48.0,44.9,28.97,SW,217,6.0,15.0,89,0.00,,,0.02,WUHU216DAVISVP2,2013-12-03 17:22:00,
2013-12-03 12:24:00,48.1,45.3,28.97,South,171,1.0,15.0,90,0.00,,,0.02,WUHU216DAVISVP2,2013-12-03 17:24:00,
2013-12-03 12:25:00,48.1,45.3,28.97,South,181,0.0,15.0,90,0.00,,,0.02,WUHU216DAVISVP2,2013-12-03 17:25:00,
2013-12-03 12:26:00,48.2,45.4,28.97,SSW,206,2.0,15.0,90,0.00,,,0.02,WUHU216DAVISVP2,2013-12-03 17:26:00,
2013-12-03 12:27:00,48.2,45.4,28.97,SW,219,6.0,15.0,90,0.00,,,0.02,WUHU216DAVISVP2,2013-12-03 17:27:00,
2013-12-03 12:30:00,48.2,45.1,28.97,South,191,6.0,15.0,89,0.00,,,0.02,WUHU216DAVISVP2,2013-12-03 17:30:00,
2013-12-03 12:31:00,48.2,45.1,28.97,WSW,243,9.0,15.0,89,0.00,,,0.02,WUHU216DAVISVP2,2013-12-03 17:31:00,
2013-12-03 12:32:00,48.1,45.0,28.97,SSW,208,2.0,14.0,89,0.00,,,0.02,WUHU216DAVISVP2,2013-12-03 17:32:00,
2013-12-03 12:35:00,47.8,44.4,28.97,SSW,193,2.0,13.0,88,0.00,,,0.02,WUHU216DAVISVP2,2013-12-03 17:35:00,
2013-12-03 12:36:00,47.6,44.2,28.97,SSW,195,2.0,13.0,88,0.00,,,0.02,WUHU216DAVISVP2,2013-12-03 17:36:00,
2013-12-03 12:37:00,47.5,44.4,28.97,South,189,5.0,13.0,89,0.00,,,0.02,WUHU216DAVISVP2,2013-12-03 17:37:00,
2013-12-03 12:38:00,47.4,44.3,28.97,SW,223,5.0,13.0,89,0.00,,,0.02,WUHU216DAVISVP2,2013-12-03 17:38:00,
2013-12-03 12:40:00,47.4,44.3,28.97,South,188,5.0,13.0,89,0.00,,,0.02,WUHU216DAVISVP2,2013-12-03 17:40:00,
2013-12-03 12:41:00,47.4,44.3,28.97,SSW,198,5.0,13.0,89,0.00,,,0.02,WUHU216DAVISVP2,2013-12-03 17:41:00,
2013-12-03 12:42:00,47.4,44.6,28.97,WSW,245,12.0,13.0,90,0.00,,,0.02,WUHU216DAVISVP2,2013-12-03 17:42:00,
2013-12-03 12:43:00,47.3,44.2,28.97,South,191,1.0,13.0,89,0.00,,,0.02,WUHU216DAVISVP2,2013-12-03 17:43:00,
2013-12-03 12:45:00,47.3,44.2,28.97,SW,223,4.0,13.0,89,0.00,,,0.02,WUHU216DAVISVP2,2013-12-03 17:45:00,
2013-12-03 12:46:00,47.3,44.2,28.97,SW,216,0.0,13.0,89,0.00,,,0.02,WUHU216DAVISVP2,2013-12-03 17:46:00,
2013-12-03 12:47:00,47.3,44.5,28.96,SW,214,2.0,13.0,90,0.00,,,0.02,WUHU216DAVISVP2,2013-12-03 17:47:00,
2013-12-03 12:48:00,47.3,44.5,28.96,SSE,151,4.0,13.0,90,0.00,,,0.02,WUHU216DAVISVP2,2013-12-03 17:48:00,
2013-12-03 12:49:00,47.3,44.5,28.96,SSE,150,1.0,13.0,90,0.00,,,0.02,WUHU216DAVISVP2,2013-12-03 17:49:00,
2013-12-03 12:50:00,47.5,44.7,28.96,South,171,4.0,13.0,90,0.00,,,0.02,WUHU216DAVISVP2,2013-12-03 17:50:00,
2013-12-03 12:51:00,47.5,44.7,28.96,SSW,213,0.0,13.0,90,0.00,,,0.02,WUHU216DAVISVP2,2013-12-03 17:51:00,
2013-12-03 12:52:00,47.6,44.8,28.96,SSW,193,3.0,13.0,90,0.00,,,0.02,WUHU216DAVISVP2,2013-12-03 17:52:00,
2013-12-03 12:53:00,47.6,44.8,28.96,SSW,197,2.0,13.0,90,0.00,,,0.02,WUHU216DAVISVP2,2013-12-03 17:53:00,
2013-12-03 12:54:00,47.7,44.9,28.96,SSE,154,7.0,13.0,90,0.00,,,0.02,WUHU216DAVISVP2,2013-12-03 17:54:00,
2013-12-03 12:55:00,47.8,45.0,28.96,South,174,2.0,13.0,90,0.00,,,0.02,WUHU216DAVISVP2,2013-12-03 17:55:00,
2013-12-03 12:56:00,47.7,44.9,28.96,South,185,7.0,13.0,90,0.00,,,0.02,WUHU216DAVISVP2,2013-12-03 17:56:00,
2013-12-03 12:57:00,47.7,44.9,28.96,SSE,168,5.0,13.0,90,0.00,,,0.02,WUHU216DAVISVP2,2013-12-03 17:57:00,
2013-12-03 12:58:00,47.7,44.6,28.96,South,177,0.0,13.0,89,0.00,,,0.02,WUHU216DAVISVP2,2013-12-03 17:58:00,
2013-12-03 12:59:00,47.7,44.6,28.96,SSW,211,1.0,13.0,89,0.00,,,0.02,WUHU216DAVISVP2,2013-12-03 17:59:00,
2013-12-03 13:00:00,47.7,44.6,28.96,SSW,192,0.0,13.0,89,0.00,,,0.02,WUHU216DAVISVP2,2013-12-03 18:00:00,
2013-12-03 13:01:00,47.8,45.0,28.96,SSW,198,2.0,10.0,90,0.00,,,0.02,WUHU216DAVISVP2,2013-12-03 18:01:00,
2013-12-03 13:03:00,47.8,45.0,28.96,South,170,4.0,9.0,90,0.00,,,0.02,WUHU216DAVISVP2,2013-12-03 18:03:00,
2013-12-03 13:05:00,47.7,44.6,28.96,SSE,166,4.0,9.0,89,0.00,,,0.02,WUHU216DAVISVP2,2013-12-03 18:05:00,
2013-12-03 13:06:00,47.7,44.6,28.96,SW,234,6.0,9.0,89,0.00,,,0.02,WUHU216DAVISVP2,2013-12-03 18:06:00,
2013-12-03 13:07:00,47.7,44.6,28.96,SW,224,4.0,9.0,89,0.00,,,0.02,WUHU216DAVISVP2,2013-12-03 18:07:00,
2013-12-03 13:08:00,47.7,44.6,28.96,South,183,0.0,9.0,89,0.00,,,0.02,WUHU216DAVISVP2,2013-12-03 18:08:00,
2013-12-03 13:10:00,47.7,44.6,28.96,South,185,2.0,9.0,89,0.00,,,0.02,WUHU216DAVISVP2,2013-12-03 18:10:00,
2013-12-03 13:12:00,47.7,44.6,28.96,SSE,159,6.0,9.0,89,0.00,,,0.02,WUHU216DAVISVP2,2013-12-03 18:12:00,
2013-12-03 13:13:00,47.7,44.6,28.95,South,169,4.0,9.0,89,0.00,,,0.02,WUHU216DAVISVP2,2013-12-03 18:13:00,
2013-12-03 13:15:00,47.7,44.6,28.95,SSE,161,3.0,11.0,89,0.00,,,0.02,WUHU216DAVISVP2,2013-12-03 18:15:00,
2013-12-03 13:17:00,47.7,44.6,28.95,SSE,162,6.0,11.0,89,0.00,,,0.02,WUHU216DAVISVP2,2013-12-03 18:17:00,
2013-12-03 13:18:00,47.7,44.6,28.95,SSE,161,9.0,11.0,89,0.00,,,0.02,WUHU216DAVISVP2,2013-12-03 18:18:00,
2013-12-03 13:20:00,47.8,44.7,28.95,SSW,212,0.0,14.0,89,0.00,,,0.02,WUHU216DAVISVP2,2013-12-03 18:20:00,
2013-12-03 13:22:00,47.8,44.7,28.95,South,174,10.0,14.0,89,0.00,,,0.02,WUHU216DAVISVP2,2013-12-03 18:22:00,
2013-12-03 13:23:00,47.8,44.7,28.95,South,177,7.0,14.0,89,0.00,,,0.02,WUHU216DAVISVP2,2013-12-03 18:23:00,
2013-12-03 13:24:00,47.8,44.7,28.95,South,191,2.0,14.0,89,0.00,,,0.02,WUHU216DAVISVP2,2013-12-03 18:24:00,
2013-12-03 13:25:00,47.8,44.7,28.95,South,181,5.0,14.0,89,0.00,,,0.02,WUHU216DAVISVP2,2013-12-03 18:25:00,
2013-12-03 13:26:00,47.8,44.7,28.95,SW,220,2.0,14.0,89,0.00,,,0.02,WUHU216DAVISVP2,2013-12-03 18:26:00,
2013-12-03 13:27:00,47.8,44.7,28.95,South,191,1.0,14.0,89,0.00,,,0.02,WUHU216DAVISVP2,2013-12-03 18:27:00,
2013-12-03 13:28:00,47.8,44.7,28.94,South,173,0.0,14.0,89,0.00,,,0.02,WUHU216DAVISVP2,2013-12-03 18:28:00,
2013-12-03 13:29:00,47.8,44.7,28.95,SE,141,6.0,14.0,89,0.00,,,0.02,WUHU216DAVISVP2,2013-12-03 18:29:00,
2013-12-03 13:30:00,47.8,44.7,28.95,South,172,8.0,14.0,89,0.00,,,0.02,WUHU216DAVISVP2,2013-12-03 18:30:00,
2013-12-03 13:32:00,47.8,44.7,28.95,South,181,11.0,14.0,89,0.00,,,0.02,WUHU216DAVISVP2,2013-12-03 18:32:00,
2013-12-03 13:34:00,47.8,44.7,28.95,SSW,208,2.0,14.0,89,0.00,,,0.02,WUHU216DAVISVP2,2013-12-03 18:34:00,
2013-12-03 13:35:00,47.8,44.7,28.94,SSE,168,5.0,14.0,89,0.00,,,0.02,WUHU216DAVISVP2,2013-12-03 18:35:00,
2013-12-03 13:36:00,47.8,44.7,28.94,SSW,192,6.0,14.0,89,0.00,,,0.02,WUHU216DAVISVP2,2013-12-03 18:36:00,
2013-12-03 13:37:00,47.8,44.7,28.94,South,183,9.0,14.0,89,0.00,,,0.02,WUHU216DAVISVP2,2013-12-03 18:37:00,
2013-12-03 13:38:00,47.8,44.7,28.94,South,179,8.0,14.0,89,0.00,,,0.02,WUHU216DAVISVP2,2013-12-03 18:38:00,
2013-12-03 13:39:00,47.8,44.7,28.94,SSE,167,6.0,14.0,89,0.00,,,0.02,WUHU216DAVISVP2,2013-12-03 18:39:00,
2013-12-03 13:41:00,47.8,44.7,28.94,SW,221,2.0,13.0,89,0.00,,,0.02,WUHU216DAVISVP2,2013-12-03 18:41:00,
2013-12-03 13:43:00,47.9,45.1,28.94,SSW,204,0.0,13.0,90,0.00,,,0.02,WUHU216DAVISVP2,2013-12-03 18:43:00,
2013-12-03 13:44:00,48.0,44.9,28.94,SSE,166,8.0,13.0,89,0.00,,,0.02,WUHU216DAVISVP2,2013-12-03 18:44:00,
2013-12-03 13:46:00,48.1,45.3,28.94,South,187,0.0,13.0,90,0.00,,,0.02,WUHU216DAVISVP2,2013-12-03 18:46:00,
2013-12-03 13:48:00,48.1,45.0,28.94,South,178,0.0,13.0,89,0.00,,,0.02,WUHU216DAVISVP2,2013-12-03 18:48:00,
2013-12-03 13:49:00,48.2,45.4,28.94,South,189,4.0,13.0,90,0.00,,,0.02,WUHU216DAVISVP2,2013-12-03 18:49:00,
2013-12-03 13:51:00,48.4,45.3,28.94,SSE,168,5.0,13.0,89,0.00,,,0.02,WUHU216DAVISVP2,2013-12-03 18:51:00,
2013-12-03 13:53:00,48.4,45.3,28.94,SSW,202,0.0,13.0,89,0.00,,,0.02,WUHU216DAVISVP2,2013-12-03 18:53:00,
2013-12-03 13:54:00,48.4,45.3,28.94,SSE,152,1.0,13.0,89,0.00,,,0.02,WUHU216DAVISVP2,2013-12-03 18:54:00,
2013-12-03 13:56:00,48.5,45.4,28.94,South,181,2.0,13.0,89,0.00,,,0.02,WUHU216DAVISVP2,2013-12-03 18:56:00,
2013-12-03 13:58:00,48.5,45.4,28.94,South,173,7.0,12.0,89,0.00,,,0.02,WUHU216DAVISVP2,2013-12-03 18:58:00,
2013-12-03 13:59:00,48.5,45.4,28.94,South,173,7.0,12.0,89,0.00,,,0.02,WUHU216DAVISVP2,2013-12-03 18:59:00,
2013-12-03 14:01:00,48.4,45.3,28.94,South,174,7.0,12.0,89,0.00,,,0.02,WUHU216DAVISVP2,2013-12-03 19:01:00,
2013-12-03 14:02:00,48.5,45.4,28.94,SSE,150,7.0,12.0,89,0.00,,,0.02,WUHU216DAVISVP2,2013-12-03 19:02:00,
2013-12-03 14:03:00,48.4,45.3,28.94,South,189,7.0,12.0,89,0.00,,,0.02,WUHU216DAVISVP2,2013-12-03 19:03:00,
2013-12-03 14:04:00,48.4,45.3,28.94,South,185,4.0,12.0,89,0.00,,,0.02,WUHU216DAVISVP2,2013-12-03 19:04:00,
2013-12-03 14:07:00,48.4,45.3,28.94,SW,231,7.0,12.0,89,0.00,,,0.02,WUHU216DAVISVP2,2013-12-03 19:07:00,
2013-12-03 14:08:00,48.4,45.3,28.94,SSE,164,6.0,12.0,89,0.00,,,0.02,WUHU216DAVISVP2,2013-12-03 19:08:00,
2013-12-03 14:09:00,48.4,45.3,28.94,SSE,164,5.0,12.0,89,0.00,,,0.02,WUHU216DAVISVP2,2013-12-03 19:09:00,
2013-12-03 14:10:00,48.5,45.4,28.94,SSE,164,7.0,12.0,89,0.00,,,0.02,WUHU216DAVISVP2,2013-12-03 19:10:00,
2013-12-03 14:12:00,48.5,45.4,28.94,South,170,9.0,11.0,89,0.00,,,0.02,WUHU216DAVISVP2,2013-12-03 19:12:00,
2013-12-03 14:13:00,48.6,45.5,28.94,SSE,160,7.0,11.0,89,0.00,,,0.02,WUHU216DAVISVP2,2013-12-03 19:13:00,
2013-12-03 14:14:00,48.6,45.5,28.94,SSE,167,7.0,11.0,89,0.00,,,0.02,WUHU216DAVISVP2,2013-12-03 19:14:00,
2013-12-03 14:15:00,48.6,45.5,28.94,SSE,162,9.0,11.0,89,0.00,,,0.02,WUHU216DAVISVP2,2013-12-03 19:15:00,
2013-12-03 14:17:00,48.7,45.6,28.93,South,178,0.0,11.0,89,0.00,,,0.02,WUHU216DAVISVP2,2013-12-03 19:17:00,
2013-12-03 14:18:00,48.8,45.7,28.93,SSE,164,2.0,11.0,89,0.00,,,0.02,WUHU216DAVISVP2,2013-12-03 19:18:00,
2013-12-03 14:19:00,48.8,45.7,28.93,SSE,159,0.0,11.0,89,0.00,,,0.02,WUHU216DAVISVP2,2013-12-03 19:19:00,
2013-12-03 14:20:00,48.8,45.7,28.93,South,173,6.0,11.0,89,0.00,,,0.02,WUHU216DAVISVP2,2013-12-03 19:20:00,
2013-12-03 14:22:00,48.9,45.8,28.94,South,177,4.0,11.0,89,0.00,,,0.02,WUHU216DAVISVP2,2013-12-03 19:22:00,
2013-12-03 14:23:00,48.9,45.8,28.94,SSE,162,5.0,11.0,89,0.00,,,0.02,WUHU216DAVISVP2,2013-12-03 19:23:00,
2013-12-03 14:24:00,48.9,45.5,28.93,South,173,12.0,12.0,88,0.00,,,0.02,WUHU216DAVISVP2,2013-12-03 19:24:00,
2013-12-03 14:25:00,48.9,45.5,28.93,SSW,197,4.0,12.0,88,0.00,,,0.02,WUHU216DAVISVP2,2013-12-03 19:25:00,
2013-12-03 14:26:00,48.9,45.8,28.93,SSE,154,2.0,12.0,89,0.00,,,0.02,WUHU216DAVISVP2,2013-12-03 19:26:00,
2013-12-03 14:28:00,49.0,45.9,28.93,SSE,168,11.0,12.0,89,0.00,,,0.02,WUHU216DAVISVP2,2013-12-03 19:28:00,
2013-12-03 14:29:00,49.0,45.9,28.93,SSE,167,6.0,12.0,89,0.00,,,0.02,WUHU216DAVISVP2,2013-12-03 19:29:00,
2013-12-03 14:30:00,49.1,46.0,28.93,SSE,161,4.0,12.0,89,0.00,,,0.02,WUHU216DAVISVP2,2013-12-03 19:30:00,
2013-12-03 14:31:00,49.1,46.0,28.93,SSE,150,6.0,12.0,89,0.00,,,0.02,WUHU216DAVISVP2,2013-12-03 19:31:00,
2013-12-03 14:33:00,49.1,45.7,28.93,SSE,148,3.0,12.0,88,0.00,,,0.02,WUHU216DAVISVP2,2013-12-03 19:33:00,
2013-12-03 14:34:00,49.1,45.7,28.93,SE,146,2.0,12.0,88,0.00,,,0.02,WUHU216DAVISVP2,2013-12-03 19:34:00,
2013-12-03 14:35:00,49.1,45.7,28.93,SE,145,0.0,12.0,88,0.00,,,0.02,WUHU216DAVISVP2,2013-12-03 19:35:00,
2013-12-03 14:36:00,49.1,45.7,28.93,SSE,155,7.0,13.0,88,0.00,,,0.02,WUHU216DAVISVP2,2013-12-03 19:36:00,
2013-12-03 14:38:00,49.1,45.7,28.93,SSE,164,1.0,13.0,88,0.00,,,0.02,WUHU216DAVISVP2,2013-12-03 19:38:00,
2013-12-03 14:39:00,49.1,45.7,28.93,SSE,168,5.0,13.0,88,0.00,,,0.02,WUHU216DAVISVP2,2013-12-03 19:39:00,
2013-12-03 14:40:00,49.1,45.7,28.93,SE,137,5.0,13.0,88,0.00,,,0.02,WUHU216DAVISVP2,2013-12-03 19:40:00,
2013-12-03 14:42:00,49.1,45.7,28.92,SE,125,1.0,13.0,88,0.00,,,0.02,WUHU216DAVISVP2,2013-12-03 19:42:00,
2013-12-03 14:44:00,49.1,46.0,28.92,SSE,150,5.0,13.0,89,0.00,,,0.02,WUHU216DAVISVP2,2013-12-03 19:44:00,
2013-12-03 14:45:00,49.1,46.0,28.92,SSE,166,4.0,13.0,89,0.00,,,0.02,WUHU216DAVISVP2,2013-12-03 19:45:00,
2013-12-03 14:47:00,49.1,46.0,28.93,SSE,168,2.0,13.0,89,0.00,,,0.02,WUHU216DAVISVP2,2013-12-03 19:47:00,
2013-12-03 14:49:00,49.1,46.0,28.92,South,174,9.0,13.0,89,0.00,,,0.02,WUHU216DAVISVP2,2013-12-03 19:49:00,
2013-12-03 14:50:00,49.1,46.0,28.92,South,177,7.0,13.0,89,0.00,,,0.02,WUHU216DAVISVP2,2013-12-03 19:50:00,
2013-12-03 14:53:00,49.1,46.0,28.92,South,172,6.0,13.0,89,0.00,,,0.02,WUHU216DAVISVP2,2013-12-03 19:53:00,
2013-12-03 14:54:00,49.1,46.0,28.92,SSE,159,0.0,13.0,89,0.00,,,0.02,WUHU216DAVISVP2,2013-12-03 19:54:00,
2013-12-03 14:55:00,49.1,46.0,28.92,SSE,160,2.0,11.0,89,0.00,,,0.02,WUHU216DAVISVP2,2013-12-03 19:55:00,
2013-12-03 14:58:00,49.1,46.0,28.92,South,173,6.0,11.0,89,0.00,,,0.02,WUHU216DAVISVP2,2013-12-03 19:58:00,
2013-12-03 14:59:00,49.1,46.0,28.93,SSE,158,4.0,11.0,89,0.00,,,0.02,WUHU216DAVISVP2,2013-12-03 19:59:00,
2013-12-03 15:00:00,49.1,46.0,28.93,SSE,168,6.0,11.0,89,0.00,,,0.02,WUHU216DAVISVP2,2013-12-03 20:00:00,
2013-12-03 15:03:00,49.2,46.1,28.92,SSW,195,7.0,11.0,89,0.00,,,0.02,WUHU216DAVISVP2,2013-12-03 20:03:00,
2013-12-03 15:05:00,49.1,46.0,28.93,SSW,199,0.0,11.0,89,0.00,,,0.02,WUHU216DAVISVP2,2013-12-03 20:05:00,
2013-12-03 15:06:00,49.2,46.1,28.92,SSE,164,7.0,11.0,89,0.00,,,0.02,WUHU216DAVISVP2,2013-12-03 20:06:00,
2013-12-03 15:08:00,49.2,46.1,28.92,SSE,147,5.0,11.0,89,0.00,,,0.02,WUHU216DAVISVP2,2013-12-03 20:08:00,
2013-12-03 15:10:00,49.2,46.1,28.92,SSW,195,0.0,11.0,89,0.00,,,0.02,WUHU216DAVISVP2,2013-12-03 20:10:00,
2013-12-03 15:11:00,49.2,46.1,28.92,SSE,158,0.0,11.0,89,0.00,,,0.02,WUHU216DAVISVP2,2013-12-03 20:11:00,
2013-12-03 15:13:00,49.2,46.1,28.93,SSW,207,1.0,9.0,89,0.00,,,0.02,WUHU216DAVISVP2,2013-12-03 20:13:00,
2013-12-03 15:15:00,49.2,46.1,28.93,SSE,157,5.0,9.0,89,0.00,,,0.02,WUHU216DAVISVP2,2013-12-03 20:15:00,
2013-12-03 15:16:00,49.2,46.1,28.93,SSE,165,3.0,9.0,89,0.00,,,0.02,WUHU216DAVISVP2,2013-12-03 20:16:00,
2013-12-03 15:17:00,49.2,46.1,28.93,South,179,5.0,8.0,89,0.00,,,0.02,WUHU216DAVISVP2,2013-12-03 20:17:00,
2013-12-03 15:19:00,49.2,46.1,28.93,SE,142,4.0,8.0,89,0.00,,,0.02,WUHU216DAVISVP2,2013-12-03 20:19:00,
2013-12-03 15:20:00,49.2,46.1,28.93,SSE,156,4.0,9.0,89,0.00,,,0.02,WUHU216DAVISVP2,2013-12-03 20:20:00,
2013-12-03 15:21:00,49.2,46.1,28.93,SE,134,6.0,9.0,89,0.00,,,0.02,WUHU216DAVISVP2,2013-12-03 20:21:00,
2013-12-03 15:22:00,49.2,46.1,28.93,SSE,164,2.0,9.0,89,0.00,,,0.02,WUHU216DAVISVP2,2013-12-03 20:22:00,
2013-12-03 15:24:00,49.2,46.1,28.93,SSE,168,5.0,9.0,89,0.00,,,0.02,WUHU216DAVISVP2,2013-12-03 20:24:00,
2013-12-03 15:26:00,49.2,46.1,28.93,SSE,155,4.0,9.0,89,0.00,,,0.02,WUHU216DAVISVP2,2013-12-03 20:26:00,
2013-12-03 15:27:00,49.2,46.1,28.93,SE,125,0.0,9.0,89,0.00,,,0.02,WUHU216DAVISVP2,2013-12-03 20:27:00,
2013-12-03 15:29:00,49.2,46.1,28.93,SE,125,0.0,9.0,89,0.00,,,0.02,WUHU216DAVISVP2,2013-12-03 20:29:00,
2013-12-03 15:31:00,49.3,46.2,28.93,SE,125,0.0,9.0,89,0.00,,,0.02,WUHU216DAVISVP2,2013-12-03 20:31:00,
2013-12-03 15:33:00,49.3,46.2,28.93,South,175,2.0,9.0,89,0.00,,,0.02,WUHU216DAVISVP2,2013-12-03 20:33:00,
2013-12-03 15:34:00,49.3,46.2,28.93,South,175,0.0,9.0,89,0.00,,,0.02,WUHU216DAVISVP2,2013-12-03 20:34:00,
2013-12-03 15:36:00,49.4,46.3,28.93,SSE,156,4.0,9.0,89,0.00,,,0.02,WUHU216DAVISVP2,2013-12-03 20:36:00,
2013-12-03 15:38:00,49.3,46.2,28.93,South,172,1.0,9.0,89,0.00,,,0.02,WUHU216DAVISVP2,2013-12-03 20:38:00,
2013-12-03 15:39:00,49.3,46.2,28.93,South,172,6.0,9.0,89,0.00,,,0.02,WUHU216DAVISVP2,2013-12-03 20:39:00,
2013-12-03 15:41:00,49.3,46.2,28.93,SE,133,3.0,9.0,89,0.00,,,0.02,WUHU216DAVISVP2,2013-12-03 20:41:00,
2013-12-03 15:42:00,49.3,46.2,28.92,SE,136,0.0,9.0,89,0.00,,,0.02,WUHU216DAVISVP2,2013-12-03 20:42:00,
2013-12-03 15:44:00,49.3,46.2,28.93,SSE,162,4.0,9.0,89,0.00,,,0.02,WUHU216DAVISVP2,2013-12-03 20:44:00,
2013-12-03 15:46:00,49.2,46.1,28.93,SSE,162,5.0,8.0,89,0.00,,,0.02,WUHU216DAVISVP2,2013-12-03 20:46:00,
2013-12-03 15:47:00,49.3,46.2,28.93,SSE,162,7.0,8.0,89,0.00,,,0.02,WUHU216DAVISVP2,2013-12-03 20:47:00,
2013-12-03 15:49:00,49.2,46.1,28.93,South,185,0.0,8.0,89,0.00,,,0.02,WUHU216DAVISVP2,2013-12-03 20:49:00,
2013-12-03 15:51:00,49.1,46.0,28.93,South,174,8.0,9.0,89,0.00,,,0.02,WUHU216DAVISVP2,2013-12-03 20:51:00,
2013-12-03 15:52:00,49.1,46.0,28.93,South,172,6.0,9.0,89,0.00,,,0.02,WUHU216DAVISVP2,2013-12-03 20:52:00,
2013-12-03 15:54:00,49.1,46.0,28.93,SSE,156,5.0,9.0,89,0.00,,,0.02,WUHU216DAVISVP2,2013-12-03 20:54:00,
2013-12-03 15:55:00,49.1,46.0,28.93,SSE,152,5.0,9.0,89,0.00,,,0.02,WUHU216DAVISVP2,2013-12-03 20:55:00,
2013-12-03 15:57:00,49.1,46.0,28.93,SSE,164,1.0,9.0,89,0.00,,,0.02,WUHU216DAVISVP2,2013-12-03 20:57:00,
2013-12-03 15:59:00,49.1,46.0,28.93,SSE,164,0.0,9.0,89,0.00,,,0.02,WUHU216DAVISVP2,2013-12-03 20:59:00,
2013-12-03 16:01:00,49.1,46.0,28.93,SSW,204,0.0,9.0,89,0.00,,,0.02,WUHU216DAVISVP2,2013-12-03 21:01:00,
2013-12-03 16:02:00,49.1,46.0,28.93,South,174,2.0,9.0,89,0.00,,,0.02,WUHU216DAVISVP2,2013-12-03 21:02:00,
2013-12-03 16:03:00,49.1,46.0,28.93,SSE,168,4.0,9.0,89,0.00,,,0.02,WUHU216DAVISVP2,2013-12-03 21:03:00,
2013-12-03 16:04:00,49.1,46.0,28.93,South,170,8.0,9.0,89,0.00,,,0.02,WUHU216DAVISVP2,2013-12-03 21:04:00,
2013-12-03 16:06:00,49.1,46.0,28.93,SSE,158,7.0,9.0,89,0.00,,,0.02,WUHU216DAVISVP2,2013-12-03 21:06:00,
2013-12-03 16:07:00,49.1,46.0,28.93,SE,138,2.0,11.0,89,0.00,,,0.02,WUHU216DAVISVP2,2013-12-03 21:07:00,
2013-12-03 16:08:00,49.1,46.0,28.93,SE,142,1.0,11.0,89,0.00,,,0.02,WUHU216DAVISVP2,2013-12-03 21:08:00,
2013-12-03 16:10:00,49.1,46.0,28.93,SSE,153,2.0,11.0,89,0.00,,,0.02,WUHU216DAVISVP2,2013-12-03 21:10:00,
2013-12-03 16:11:00,49.1,46.0,28.93,SE,133,1.0,11.0,89,0.00,,,0.02,WUHU216DAVISVP2,2013-12-03 21:11:00,
2013-12-03 16:12:00,49.1,46.0,28.93,SSE,163,5.0,11.0,89,0.00,,,0.02,WUHU216DAVISVP2,2013-12-03 21:12:00,
2013-12-03 16:13:00,49.1,46.0,28.93,SSE,158,5.0,11.0,89,0.00,,,0.02,WUHU216DAVISVP2,2013-12-03 21:13:00,
2013-12-03 16:16:00,49.0,45.9,28.93,SSE,162,0.0,11.0,89,0.00,,,0.02,WUHU216DAVISVP2,2013-12-03 21:16:00,
2013-12-03 16:17:00,49.0,45.9,28.93,SSE,162,5.0,11.0,89,0.00,,,0.02,WUHU216DAVISVP2,2013-12-03 21:17:00,
2013-12-03 16:18:00,49.0,45.9,28.93,SE,142,5.0,11.0,89,0.00,,,0.02,WUHU216DAVISVP2,2013-12-03 21:18:00,
2013-12-03 16:19:00,49.0,45.9,28.93,SSE,155,0.0,11.0,89,0.00,,,0.02,WUHU216DAVISVP2,2013-12-03 21:19:00,
2013-12-03 16:21:00,49.0,45.9,28.93,South,174,0.0,11.0,89,0.00,,,0.02,WUHU216DAVISVP2,2013-12-03 21:21:00,
2013-12-03 16:22:00,49.0,45.9,28.93,South,174,1.0,11.0,89,0.00,,,0.02,WUHU216DAVISVP2,2013-12-03 21:22:00,
2013-12-03 16:23:00,49.0,45.9,28.93,SSE,166,1.0,11.0,89,0.00,,,0.02,WUHU216DAVISVP2,2013-12-03 21:23:00,
2013-12-03 16:24:00,49.0,45.9,28.93,SSE,166,0.0,11.0,89,0.00,,,0.02,WUHU216DAVISVP2,2013-12-03 21:24:00,
2013-12-03 16:27:00,49.0,45.9,28.93,SSE,166,2.0,9.0,89,0.00,,,0.02,WUHU216DAVISVP2,2013-12-03 21:27:00,
2013-12-03 16:28:00,48.9,46.1,28.93,SSE,166,1.0,9.0,90,0.00,,,0.02,WUHU216DAVISVP2,2013-12-03 21:28:00,
2013-12-03 16:30:00,49.0,46.2,28.93,SSE,166,0.0,9.0,90,0.00,,,0.02,WUHU216DAVISVP2,2013-12-03 21:30:00,
2013-12-03 16:32:00,49.0,46.2,28.94,South,175,1.0,9.0,90,0.00,,,0.02,WUHU216DAVISVP2,2013-12-03 21:32:00,
2013-12-03 16:33:00,49.0,46.2,28.94,South,180,0.0,9.0,90,0.00,,,0.02,WUHU216DAVISVP2,2013-12-03 21:33:00,
2013-12-03 16:36:00,49.0,46.2,28.94,South,184,0.0,9.0,90,0.00,,,0.02,WUHU216DAVISVP2,2013-12-03 21:36:00,
2013-12-03 16:37:00,49.0,46.2,28.94,SW,228,6.0,6.0,90,0.00,,,0.02,WUHU216DAVISVP2,2013-12-03 21:37:00,
2013-12-03 16:38:00,49.0,46.2,28.94,SW,228,6.0,7.0,90,0.00,,,0.02,WUHU216DAVISVP2,2013-12-03 21:38:00,
2013-12-03 16:39:00,49.0,46.2,28.94,SW,228,4.0,7.0,90,0.00,,,0.02,WUHU216DAVISVP2,2013-12-03 21:39:00,
2013-12-03 16:41:00,49.0,45.9,28.94,South,187,2.0,7.0,89,0.00,,,0.02,WUHU216DAVISVP2,2013-12-03 21:41:00,
2013-12-03 16:43:00,49.0,45.9,28.94,SSW,195,0.0,7.0,89,0.00,,,0.02,WUHU216DAVISVP2,2013-12-03 21:43:00,
2013-12-03 16:44:00,49.0,45.9,28.94,SSW,196,1.0,7.0,89,0.00,,,0.02,WUHU216DAVISVP2,2013-12-03 21:44:00,
2013-12-03 16:46:00,49.0,45.9,28.94,South,191,0.0,8.0,89,0.00,,,0.02,WUHU216DAVISVP2,2013-12-03 21:46:00,
2013-12-03 16:48:00,49.0,45.9,28.94,South,189,0.0,10.0,89,0.00,,,0.02,WUHU216DAVISVP2,2013-12-03 21:48:00,
2013-12-03 16:49:00,49.0,45.9,28.94,SW,222,0.0,10.0,89,0.00,,,0.02,WUHU216DAVISVP2,2013-12-03 21:49:00,
2013-12-03 16:51:00,49.0,45.9,28.94,SW,216,3.0,10.0,89,0.00,,,0.02,WUHU216DAVISVP2,2013-12-03 21:51:00,
2013-12-03 16:53:00,48.9,45.8,28.94,WSW,247,6.0,10.0,89,0.00,,,0.02,WUHU216DAVISVP2,2013-12-03 21:53:00,
2013-12-03 16:54:00,48.9,45.8,28.94,South,186,1.0,10.0,89,0.00,,,0.02,WUHU216DAVISVP2,2013-12-03 21:54:00,
2013-12-03 16:56:00,48.9,45.8,28.94,SSW,209,1.0,10.0,89,0.00,,,0.02,WUHU216DAVISVP2,2013-12-03 21:56:00,
2013-12-03 16:58:00,48.8,45.7,28.94,SW,235,6.0,10.0,89,0.00,,,0.02,WUHU216DAVISVP2,2013-12-03 21:58:00,
2013-12-03 16:59:00,48.8,45.7,28.94,South,179,5.0,10.0,89,0.00,,,0.02,WUHU216DAVISVP2,2013-12-03 21:59:00,
2013-12-03 17:00:00,48.8,45.7,28.94,South,169,5.0,10.0,89,0.00,,,0.02,WUHU216DAVISVP2,2013-12-03 22:00:00,
2013-12-03 17:02:00,48.7,45.9,28.94,SW,219,0.0,10.0,90,0.00,,,0.02,WUHU216DAVISVP2,2013-12-03 22:02:00,
2013-12-03 17:03:00,48.7,45.9,28.94,SSW,210,0.0,10.0,90,0.00,,,0.02,WUHU216DAVISVP2,2013-12-03 22:03:00,
2013-12-03 17:04:00,48.7,45.9,28.94,SSW,209,2.0,10.0,90,0.00,,,0.02,WUHU216DAVISVP2,2013-12-03 22:04:00,
2013-12-03 17:05:00,48.7,45.9,28.94,SW,224,7.0,10.0,90,0.00,,,0.02,WUHU216DAVISVP2,2013-12-03 22:05:00,
2013-12-03 17:07:00,48.6,45.8,28.94,South,186,4.0,9.0,90,0.00,,,0.02,WUHU216DAVISVP2,2013-12-03 22:07:00,
2013-12-03 17:08:00,48.6,45.8,28.94,South,191,0.0,9.0,90,0.00,,,0.02,WUHU216DAVISVP2,2013-12-03 22:08:00,
2013-12-03 17:09:00,48.5,45.7,28.94,South,181,1.0,9.0,90,0.00,,,0.02,WUHU216DAVISVP2,2013-12-03 22:09:00,
2013-12-03 17:10:00,48.5,45.7,28.94,SSW,193,4.0,9.0,90,0.00,,,0.02,WUHU216DAVISVP2,2013-12-03 22:10:00,
2013-12-03 17:13:00,48.5,45.7,28.94,SW,224,0.0,9.0,90,0.00,,,0.02,WUHU216DAVISVP2,2013-12-03 22:13:00,
2013-12-03 17:14:00,48.4,45.6,28.94,South,188,4.0,9.0,90,0.00,,,0.02,WUHU216DAVISVP2,2013-12-03 22:14:00,
2013-12-03 17:15:00,48.4,45.6,28.94,SW,215,0.0,9.0,90,0.00,,,0.02,WUHU216DAVISVP2,2013-12-03 22:15:00,
2013-12-03 17:16:00,48.4,45.6,28.94,South,179,0.0,9.0,90,0.00,,,0.02,WUHU216DAVISVP2,2013-12-03 22:16:00,
2013-12-03 17:18:00,48.4,45.6,28.94,SW,223,1.0,9.0,90,0.00,,,0.02,WUHU216DAVISVP2,2013-12-03 22:18:00,
2013-12-03 17:19:00,48.3,45.5,28.94,South,170,4.0,9.0,90,0.00,,,0.02,WUHU216DAVISVP2,2013-12-03 22:19:00,
2013-12-03 17:20:00,48.3,45.5,28.94,South,172,0.0,9.0,90,0.00,,,0.02,WUHU216DAVISVP2,2013-12-03 22:20:00,
2013-12-03 17:21:00,48.3,45.5,28.94,SW,224,0.0,9.0,90,0.00,,,0.02,WUHU216DAVISVP2,2013-12-03 22:21:00,
2013-12-03 17:23:00,48.3,45.5,28.94,South,181,0.0,9.0,90,0.00,,,0.02,WUHU216DAVISVP2,2013-12-03 22:23:00,
2013-12-03 17:24:00,48.3,45.5,28.94,SW,220,0.0,8.0,90,0.00,,,0.02,WUHU216DAVISVP2,2013-12-03 22:24:00,
2013-12-03 17:25:00,48.3,45.5,28.94,SSW,194,1.0,8.0,90,0.00,,,0.02,WUHU216DAVISVP2,2013-12-03 22:25:00,
2013-12-03 17:26:00,48.3,45.5,28.94,South,189,2.0,8.0,90,0.00,,,0.02,WUHU216DAVISVP2,2013-12-03 22:26:00,
2013-12-03 17:28:00,48.3,45.5,28.94,SW,229,0.0,9.0,90,0.00,,,0.02,WUHU216DAVISVP2,2013-12-03 22:28:00,
2013-12-03 17:29:00,48.2,45.4,28.94,SW,228,0.0,9.0,90,0.00,,,0.02,WUHU216DAVISVP2,2013-12-03 22:29:00,
2013-12-03 17:30:00,48.3,45.5,28.94,SSW,202,2.0,9.0,90,0.00,,,0.02,WUHU216DAVISVP2,2013-12-03 22:30:00,
2013-12-03 17:31:00,48.3,45.5,28.94,SSW,198,4.0,9.0,90,0.00,,,0.02,WUHU216DAVISVP2,2013-12-03 22:31:00,
2013-12-03 17:34:00,48.3,45.5,28.94,South,172,0.0,9.0,90,0.00,,,0.02,WUHU216DAVISVP2,2013-12-03 22:34:00,
2013-12-03 17:35:00,48.3,45.5,28.94,South,175,6.0,9.0,90,0.00,,,0.02,WUHU216DAVISVP2,2013-12-03 22:35:00,
2013-12-03 17:36:00,48.3,45.5,28.93,South,171,2.0,9.0,90,0.00,,,0.02,WUHU216DAVISVP2,2013-12-03 22:36:00,
2013-12-03 17:39:00,48.3,45.5,28.93,SE,145,1.0,9.0,90,0.00,,,0.02,WUHU216DAVISVP2,2013-12-03 22:39:00,
2013-12-03 17:40:00,48.3,45.5,28.94,SE,145,0.0,9.0,90,0.00,,,0.02,WUHU216DAVISVP2,2013-12-03 22:40:00,
2013-12-03 17:41:00,48.3,45.5,28.93,SE,145,2.0,9.0,90,0.00,,,0.02,WUHU216DAVISVP2,2013-12-03 22:41:00,
2013-12-03 17:42:00,48.3,45.5,28.93,SSE,168,2.0,9.0,90,0.00,,,0.02,WUHU216DAVISVP2,2013-12-03 22:42:00,
2013-12-03 17:43:00,48.3,45.5,28.93,South,185,2.0,9.0,90,0.00,,,0.02,WUHU216DAVISVP2,2013-12-03 22:43:00,
2013-12-03 17:44:00,48.3,45.5,28.93,South,187,2.0,9.0,90,0.00,,,0.02,WUHU216DAVISVP2,2013-12-03 22:44:00,
2013-12-03 17:46:00,48.3,45.5,28.93,SSE,153,2.0,9.0,90,0.00,,,0.02,WUHU216DAVISVP2,2013-12-03 22:46:00,
2013-12-03 17:47:00,48.3,45.5,28.93,South,175,3.0,9.0,90,0.00,,,0.02,WUHU216DAVISVP2,2013-12-03 22:47:00,
2013-12-03 17:48:00,48.4,45.6,28.93,South,176,8.0,9.0,90,0.00,,,0.02,WUHU216DAVISVP2,2013-12-03 22:48:00,
2013-12-03 17:49:00,48.3,45.5,28.93,SSW,193,4.0,9.0,90,0.00,,,0.02,WUHU216DAVISVP2,2013-12-03 22:49:00,
2013-12-03 17:51:00,48.4,45.6,28.93,South,179,2.0,9.0,90,0.00,,,0.02,WUHU216DAVISVP2,2013-12-03 22:51:00,
2013-12-03 17:52:00,48.4,45.6,28.93,SSE,159,2.0,9.0,90,0.00,,,0.02,WUHU216DAVISVP2,2013-12-03 22:52:00,
2013-12-03 17:53:00,48.4,45.6,28.93,South,175,2.0,9.0,90,0.00,,,0.02,WUHU216DAVISVP2,2013-12-03 22:53:00,
2013-12-03 17:54:00,48.4,45.6,28.93,SSE,164,1.0,9.0,90,0.00,,,0.02,WUHU216DAVISVP2,2013-12-03 22:54:00,
2013-12-03 17:56:00,48.4,45.6,28.93,SSE,162,0.0,9.0,90,0.00,,,0.02,WUHU216DAVISVP2,2013-12-03 22:56:00,
2013-12-03 17:57:00,48.4,45.6,28.93,SSE,163,0.0,9.0,90,0.00,,,0.02,WUHU216DAVISVP2,2013-12-03 22:57:00,
2013-12-03 17:58:00,48.3,45.5,28.93,SSE,162,1.0,9.0,90,0.00,,,0.02,WUHU216DAVISVP2,2013-12-03 22:58:00,
2013-12-03 17:59:00,48.3,45.5,28.93,SE,141,1.0,9.0,90,0.00,,,0.02,WUHU216DAVISVP2,2013-12-03 22:59:00,
2013-12-03 18:00:00,48.3,45.5,28.93,SE,129,2.0,9.0,90,0.00,,,0.02,WUHU216DAVISVP2,2013-12-03 23:00:00,
2013-12-03 18:02:00,48.3,45.5,28.93,South,181,6.0,9.0,90,0.00,,,0.02,WUHU216DAVISVP2,2013-12-03 23:02:00,
2013-12-03 18:03:00,48.4,45.6,28.93,SSE,161,5.0,9.0,90,0.00,,,0.02,WUHU216DAVISVP2,2013-12-03 23:03:00,
2013-12-03 18:04:00,48.3,45.5,28.93,South,174,6.0,9.0,90,0.00,,,0.02,WUHU216DAVISVP2,2013-12-03 23:04:00,
2013-12-03 18:05:00,48.4,45.6,28.94,South,183,7.0,9.0,90,0.00,,,0.02,WUHU216DAVISVP2,2013-12-03 23:05:00,
2013-12-03 18:07:00,48.4,45.6,28.94,SSE,166,7.0,9.0,90,0.00,,,0.02,WUHU216DAVISVP2,2013-12-03 23:07:00,
2013-12-03 18:08:00,48.3,45.5,28.94,SE,144,6.0,9.0,90,0.00,,,0.02,WUHU216DAVISVP2,2013-12-03 23:08:00,
2013-12-03 18:09:00,48.4,45.6,28.94,SSE,168,0.0,8.0,90,0.00,,,0.02,WUHU216DAVISVP2,2013-12-03 23:09:00,
2013-12-03 18:10:00,48.3,45.5,28.94,SSE,149,0.0,8.0,90,0.00,,,0.02,WUHU216DAVISVP2,2013-12-03 23:10:00,
2013-12-03 18:12:00,48.3,45.5,28.94,ESE,120,0.0,8.0,90,0.00,,,0.02,WUHU216DAVISVP2,2013-12-03 23:12:00,
2013-12-03 18:13:00,48.3,45.5,28.94,ESE,123,0.0,8.0,90,0.00,,,0.02,WUHU216DAVISVP2,2013-12-03 23:13:00,
2013-12-03 18:14:00,48.3,45.5,28.94,ESE,123,0.0,8.0,90,0.00,,,0.02,WUHU216DAVISVP2,2013-12-03 23:14:00,
2013-12-03 18:16:00,48.3,45.5,28.94,SSW,192,0.0,8.0,90,0.00,,,0.02,WUHU216DAVISVP2,2013-12-03 23:16:00,
2013-12-03 18:18:00,48.3,45.5,28.94,South,181,0.0,8.0,90,0.00,,,0.02,WUHU216DAVISVP2,2013-12-03 23:18:00,
2013-12-03 18:19:00,48.3,45.5,28.94,South,181,3.0,8.0,90,0.00,,,0.02,WUHU216DAVISVP2,2013-12-03 23:19:00,
2013-12-03 18:20:00,48.3,45.5,28.94,SW,226,4.0,8.0,90,0.00,,,0.02,WUHU216DAVISVP2,2013-12-03 23:20:00,
2013-12-03 18:21:00,48.3,45.5,28.94,SSE,147,5.0,8.0,90,0.00,,,0.02,WUHU216DAVISVP2,2013-12-03 23:21:00,
2013-12-03 18:23:00,48.3,45.5,28.94,SSE,147,0.0,7.0,90,0.00,,,0.02,WUHU216DAVISVP2,2013-12-03 23:23:00,
2013-12-03 18:25:00,48.3,45.5,28.94,SSE,158,0.0,7.0,90,0.00,,,0.02,WUHU216DAVISVP2,2013-12-03 23:25:00,
2013-12-03 18:26:00,48.3,45.5,28.94,SSE,165,1.0,7.0,90,0.00,,,0.02,WUHU216DAVISVP2,2013-12-03 23:26:00,
2013-12-03 18:28:00,48.3,45.5,28.94,SSE,166,3.0,6.0,90,0.00,,,0.02,WUHU216DAVISVP2,2013-12-03 23:28:00,
2013-12-03 18:30:00,48.3,45.5,28.94,SSE,165,1.0,6.0,90,0.00,,,0.02,WUHU216DAVISVP2,2013-12-03 23:30:00,
2013-12-03 18:32:00,48.3,45.5,28.94,SSE,163,3.0,6.0,90,0.00,,,0.02,WUHU216DAVISVP2,2013-12-03 23:32:00,
2013-12-03 18:33:00,48.3,45.5,28.94,SSE,151,2.0,6.0,90,0.00,,,0.02,WUHU216DAVISVP2,2013-12-03 23:33:00,
2013-12-03 18:35:00,48.3,45.5,28.94,South,177,0.0,6.0,90,0.00,,,0.02,WUHU216DAVISVP2,2013-12-03 23:35:00,
2013-12-03 18:36:00,48.3,45.5,28.94,South,187,2.0,6.0,90,0.00,,,0.02,WUHU216DAVISVP2,2013-12-03 23:36:00,
2013-12-03 18:37:00,48.3,45.5,28.94,SSE,158,2.0,6.0,90,0.00,,,0.02,WUHU216DAVISVP2,2013-12-03 23:37:00,
2013-12-03 18:39:00,48.3,45.5,28.94,SSE,165,0.0,6.0,90,0.00,,,0.02,WUHU216DAVISVP2,2013-12-03 23:39:00,
2013-12-03 18:40:00,48.3,45.5,28.94,SSW,197,0.0,6.0,90,0.00,,,0.02,WUHU216DAVISVP2,2013-12-03 23:40:00,
2013-12-03 18:41:00,48.3,45.5,28.94,SSW,195,0.0,6.0,90,0.00,,,0.02,WUHU216DAVISVP2,2013-12-03 23:41:00,
2013-12-03 18:42:00,48.3,45.5,28.94,SSW,195,0.0,6.0,90,0.00,,,0.02,WUHU216DAVISVP2,2013-12-03 23:42:00,
2013-12-03 18:44:00,48.3,45.5,28.94,SSE,164,2.0,6.0,90,0.00,,,0.02,WUHU216DAVISVP2,2013-12-03 23:44:00,
2013-12-03 18:45:00,48.3,45.5,28.94,SSE,164,0.0,6.0,90,0.00,,,0.02,WUHU216DAVISVP2,2013-12-03 23:45:00,
2013-12-03 18:46:00,48.3,45.5,28.94,SSE,164,0.0,6.0,90,0.00,,,0.02,WUHU216DAVISVP2,2013-12-03 23:46:00,
2013-12-03 18:47:00,48.3,45.5,28.94,SSE,164,0.0,6.0,90,0.00,,,0.02,WUHU216DAVISVP2,2013-12-03 23:47:00,
2013-12-03 18:49:00,48.3,45.5,28.94,SE,129,0.0,6.0,90,0.00,,,0.02,WUHU216DAVISVP2,2013-12-03 23:49:00,
2013-12-03 18:50:00,48.3,45.5,28.94,SE,129,0.0,6.0,90,0.00,,,0.02,WUHU216DAVISVP2,2013-12-03 23:50:00,
2013-12-03 18:51:00,48.3,45.5,28.94,SE,140,5.0,6.0,90,0.00,,,0.02,WUHU216DAVISVP2,2013-12-03 23:51:00,
2013-12-03 18:52:00,48.3,45.5,28.94,SSE,158,0.0,6.0,90,0.00,,,0.02,WUHU216DAVISVP2,2013-12-03 23:52:00,
2013-12-03 18:53:00,48.3,45.5,28.94,SSE,158,0.0,6.0,90,0.00,,,0.02,WUHU216DAVISVP2,2013-12-03 23:53:00,
2013-12-03 18:55:00,48.3,45.5,28.94,SSE,158,0.0,5.0,90,0.00,,,0.02,WUHU216DAVISVP2,2013-12-03 23:55:00,
2013-12-03 18:56:00,48.3,45.5,28.94,SSE,158,0.0,5.0,90,0.00,,,0.02,WUHU216DAVISVP2,2013-12-03 23:56:00,
2013-12-03 18:58:00,48.3,45.5,28.94,SSE,162,0.0,5.0,90,0.00,,,0.02,WUHU216DAVISVP2,2013-12-03 23:58:00,
2013-12-03 18:59:00,48.3,45.5,28.94,SSE,162,0.0,5.0,90,0.00,,,0.02,WUHU216DAVISVP2,2013-12-03 23:59:00,
2013-12-03 19:00:00,48.3,45.5,28.94,SSE,162,2.0,5.0,90,0.00,,,0.02,WUHU216DAVISVP2,2013-12-04 00:00:00,
2013-12-03 19:01:00,48.3,45.5,28.94,SSE,162,0.0,5.0,90,0.00,,,0.02,WUHU216DAVISVP2,2013-12-04 00:01:00,
2013-12-03 19:02:00,48.3,45.5,28.94,South,174,0.0,5.0,90,0.00,,,0.02,WUHU216DAVISVP2,2013-12-04 00:02:00,
2013-12-03 19:03:00,48.3,45.5,28.94,South,174,1.0,5.0,90,0.00,,,0.02,WUHU216DAVISVP2,2013-12-04 00:03:00,
2013-12-03 19:04:00,48.3,45.5,28.94,South,180,2.0,7.0,90,0.00,,,0.02,WUHU216DAVISVP2,2013-12-04 00:04:00,
2013-12-03 19:05:00,48.3,45.5,28.94,South,170,1.0,7.0,90,0.00,,,0.02,WUHU216DAVISVP2,2013-12-04 00:05:00,
2013-12-03 19:06:00,48.3,45.5,28.94,SSE,160,4.0,7.0,90,0.00,,,0.02,WUHU216DAVISVP2,2013-12-04 00:06:00,
2013-12-03 19:07:00,48.3,45.5,28.94,South,181,0.0,7.0,90,0.00,,,0.02,WUHU216DAVISVP2,2013-12-04 00:07:00,
2013-12-03 19:08:00,48.3,45.5,28.94,South,184,0.0,7.0,90,0.00,,,0.02,WUHU216DAVISVP2,2013-12-04 00:08:00,
2013-12-03 19:09:00,48.3,45.5,28.94,South,184,0.0,7.0,90,0.00,,,0.02,WUHU216DAVISVP2,2013-12-04 00:09:00,
2013-12-03 19:11:00,48.3,45.5,28.94,South,177,0.0,7.0,90,0.00,,,0.02,WUHU216DAVISVP2,2013-12-04 00:11:00,
2013-12-03 19:12:00,48.3,45.5,28.94,South,182,1.0,7.0,90,0.00,,,0.02,WUHU216DAVISVP2,2013-12-04 00:12:00,
2013-12-03 19:14:00,48.4,45.6,28.94,South,182,0.0,7.0,90,0.00,,,0.02,WUHU216DAVISVP2,2013-12-04 00:14:00,
2013-12-03 19:16:00,48.3,45.5,28.94,SSW,199,5.0,9.0,90,0.00,,,0.02,WUHU216DAVISVP2,2013-12-04 00:16:00,
2013-12-03 19:18:00,48.3,45.2,28.94,SSE,167,4.0,9.0,89,0.00,,,0.02,WUHU216DAVISVP2,2013-12-04 00:18:00,
2013-12-03 19:19:00,48.3,45.2,28.94,South,175,1.0,9.0,89,0.00,,,0.02,WUHU216DAVISVP2,2013-12-04 00:19:00,
2013-12-03 19:21:00,48.3,45.2,28.94,SE,137,6.0,9.0,89,0.00,,,0.02,WUHU216DAVISVP2,2013-12-04 00:21:00,
2013-12-03 19:23:00,48.4,45.6,28.94,South,174,0.0,10.0,90,0.00,,,0.02,WUHU216DAVISVP2,2013-12-04 00:23:00,
2013-12-03 19:24:00,48.4,45.3,28.94,South,191,1.0,10.0,89,0.00,,,0.02,WUHU216DAVISVP2,2013-12-04 00:24:00,
2013-12-03 19:25:00,48.4,45.3,28.94,South,191,0.0,10.0,89,0.00,,,0.02,WUHU216DAVISVP2,2013-12-04 00:25:00,
2013-12-03 19:26:00,48.4,45.3,28.94,South,189,0.0,10.0,89,0.00,,,0.02,WUHU216DAVISVP2,2013-12-04 00:26:00,
2013-12-03 19:28:00,48.3,45.2,28.94,SSE,168,2.0,10.0,89,0.00,,,0.02,WUHU216DAVISVP2,2013-12-04 00:28:00,
2013-12-03 19:30:00,48.3,45.2,28.94,South,180,4.0,10.0,89,0.00,,,0.02,WUHU216DAVISVP2,2013-12-04 00:30:00,
2013-12-03 19:31:00,48.3,45.2,28.94,South,179,0.0,10.0,89,0.00,,,0.02,WUHU216DAVISVP2,2013-12-04 00:31:00,
2013-12-03 19:34:00,48.3,45.2,28.94,SSE,167,1.0,10.0,89,0.00,,,0.02,WUHU216DAVISVP2,2013-12-04 00:34:00,
2013-12-03 19:35:00,48.3,45.2,28.94,SSE,161,5.0,10.0,89,0.00,,,0.02,WUHU216DAVISVP2,2013-12-04 00:35:00,
2013-12-03 19:37:00,48.3,45.2,28.94,SE,137,0.0,10.0,89,0.00,,,0.02,WUHU216DAVISVP2,2013-12-04 00:37:00,
2013-12-03 19:39:00,48.3,45.2,28.94,SSE,164,3.0,10.0,89,0.00,,,0.02,WUHU216DAVISVP2,2013-12-04 00:39:00,
2013-12-03 19:40:00,48.3,45.2,28.94,SSE,168,5.0,10.0,89,0.00,,,0.02,WUHU216DAVISVP2,2013-12-04 00:40:00,
2013-12-03 19:42:00,48.3,45.2,28.94,SSE,160,0.0,9.0,89,0.00,,,0.02,WUHU216DAVISVP2,2013-12-04 00:42:00,
2013-12-03 19:44:00,48.3,45.2,28.94,SE,131,2.0,9.0,89,0.00,,,0.02,WUHU216DAVISVP2,2013-12-04 00:44:00,
2013-12-03 19:45:00,48.3,45.2,28.94,SE,146,2.0,9.0,89,0.00,,,0.02,WUHU216DAVISVP2,2013-12-04 00:45:00,
2013-12-03 19:46:00,48.3,45.2,28.94,SE,143,5.0,9.0,89,0.00,,,0.02,WUHU216DAVISVP2,2013-12-04 00:46:00,
2013-12-03 19:47:00,48.2,45.1,28.94,SSW,201,1.0,9.0,89,0.00,,,0.02,WUHU216DAVISVP2,2013-12-04 00:47:00,
2013-12-03 19:49:00,48.3,45.2,28.94,SSW,201,2.0,9.0,89,0.00,,,0.02,WUHU216DAVISVP2,2013-12-04 00:49:00,
2013-12-03 19:50:00,48.2,45.1,28.94,South,172,0.0,9.0,89,0.00,,,0.02,WUHU216DAVISVP2,2013-12-04 00:50:00,
2013-12-03 19:51:00,48.2,45.1,28.95,South,177,0.0,8.0,89,0.00,,,0.02,WUHU216DAVISVP2,2013-12-04 00:51:00,
2013-12-03 19:52:00,48.2,45.1,28.95,South,181,0.0,7.0,89,0.00,,,0.02,WUHU216DAVISVP2,2013-12-04 00:52:00,
2013-12-03 19:55:00,48.2,45.4,28.95,SSW,193,0.0,7.0,90,0.00,,,0.02,WUHU216DAVISVP2,2013-12-04 00:55:00,
2013-12-03 19:56:00,48.2,45.1,28.95,South,187,4.0,7.0,89,0.00,,,0.02,WUHU216DAVISVP2,2013-12-04 00:56:00,
2013-12-03 19:57:00,48.2,45.4,28.95,South,172,4.0,7.0,90,0.00,,,0.02,WUHU216DAVISVP2,2013-12-04 00:57:00,
2013-12-03 20:00:00,48.2,45.1,28.95,SSW,194,2.0,7.0,89,0.00,,,0.02,WUHU216DAVISVP2,2013-12-04 01:00:00,
2013-12-03 20:01:00,48.2,45.1,28.95,SSW,194,0.0,7.0,89,0.00,,,0.02,WUHU216DAVISVP2,2013-12-04 01:01:00,
2013-12-03 20:02:00,48.2,45.4,28.95,South,179,7.0,7.0,90,0.00,,,0.02,WUHU216DAVISVP2,2013-12-04 01:02:00,
2013-12-03 20:03:00,48.2,45.4,28.95,South,189,0.0,8.0,90,0.00,,,0.02,WUHU216DAVISVP2,2013-12-04 01:03:00,
2013-12-03 20:06:00,48.2,45.4,28.94,South,174,0.0,8.0,90,0.00,,,0.02,WUHU216DAVISVP2,2013-12-04 01:06:00,
2013-12-03 20:08:00,48.2,45.4,28.94,South,172,5.0,9.0,90,0.00,,,0.02,WUHU216DAVISVP2,2013-12-04 01:08:00,
2013-12-03 20:09:00,48.2,45.4,28.94,South,177,4.0,9.0,90,0.00,,,0.02,WUHU216DAVISVP2,2013-12-04 01:09:00,
2013-12-03 20:11:00,48.2,45.4,28.94,SSE,165,1.0,9.0,90,0.00,,,0.02,WUHU216DAVISVP2,2013-12-04 01:11:00,
2013-12-03 20:12:00,48.2,45.4,28.94,SSE,165,0.0,9.0,90,0.00,,,0.02,WUHU216DAVISVP2,2013-12-04 01:12:00,
2013-12-03 20:13:00,48.2,45.4,28.94,SSE,158,0.0,9.0,90,0.00,,,0.02,WUHU216DAVISVP2,2013-12-04 01:13:00,
2013-12-03 20:14:00,48.2,45.4,28.94,SSE,157,0.0,9.0,90,0.00,,,0.02,WUHU216DAVISVP2,2013-12-04 01:14:00,
2013-12-03 20:17:00,48.2,45.4,28.95,South,191,0.0,9.0,90,0.00,,,0.02,WUHU216DAVISVP2,2013-12-04 01:17:00,
2013-12-03 20:18:00,48.2,45.4,28.95,South,191,0.0,9.0,90,0.00,,,0.02,WUHU216DAVISVP2,2013-12-04 01:18:00,
2013-12-03 20:19:00,48.2,45.4,28.95,South,191,0.0,9.0,90,0.00,,,0.02,WUHU216DAVISVP2,2013-12-04 01:19:00,
2013-12-03 20:22:00,48.2,45.4,28.95,SSW,208,0.0,9.0,90,0.00,,,0.02,WUHU216DAVISVP2,2013-12-04 01:22:00,
2013-12-03 20:23:00,48.2,45.4,28.95,SSW,211,0.0,9.0,90,0.00,,,0.02,WUHU216DAVISVP2,2013-12-04 01:23:00,
2013-12-03 20:24:00,48.3,45.2,28.95,SSW,201,0.0,9.0,89,0.00,,,0.02,WUHU216DAVISVP2,2013-12-04 01:24:00,
2013-12-03 20:27:00,48.3,45.2,28.95,South,179,0.0,7.0,89,0.00,,,0.02,WUHU216DAVISVP2,2013-12-04 01:27:00,
2013-12-03 20:28:00,48.3,45.2,28.94,South,179,2.0,7.0,89,0.00,,,0.02,WUHU216DAVISVP2,2013-12-04 01:28:00,
2013-12-03 20:30:00,48.3,45.2,28.94,SSW,193,1.0,7.0,89,0.00,,,0.02,WUHU216DAVISVP2,2013-12-04 01:30:00,
2013-12-03 20:32:00,48.3,45.2,28.94,South,177,7.0,9.0,89,0.00,,,0.02,WUHU216DAVISVP2,2013-12-04 01:32:00,
2013-12-03 20:33:00,48.3,45.2,28.94,South,174,9.0,9.0,89,0.00,,,0.02,WUHU216DAVISVP2,2013-12-04 01:33:00,
2013-12-03 20:34:00,48.3,45.2,28.94,South,176,2.0,9.0,89,0.00,,,0.02,WUHU216DAVISVP2,2013-12-04 01:34:00,
2013-12-03 20:35:00,48.3,45.2,28.94,SSW,197,1.0,9.0,89,0.00,,,0.02,WUHU216DAVISVP2,2013-12-04 01:35:00,
2013-12-03 20:38:00,48.4,45.3,28.95,South,183,4.0,9.0,89,0.00,,,0.02,WUHU216DAVISVP2,2013-12-04 01:38:00,
2013-12-03 20:39:00,48.3,45.2,28.94,SSW,196,1.0,9.0,89,0.00,,,0.02,WUHU216DAVISVP2,2013-12-04 01:39:00,
2013-12-03 20:40:00,48.3,45.2,28.95,SSW,196,0.0,9.0,89,0.00,,,0.02,WUHU216DAVISVP2,2013-12-04 01:40:00,
2013-12-03 20:43:00,48.3,45.2,28.95,SSW,209,1.0,9.0,89,0.00,,,0.02,WUHU216DAVISVP2,2013-12-04 01:43:00,
2013-12-03 20:44:00,48.3,45.2,28.95,SW,224,6.0,9.0,89,0.00,,,0.02,WUHU216DAVISVP2,2013-12-04 01:44:00,
2013-12-03 20:46:00,48.3,45.2,28.95,SSW,206,0.0,13.0,89,0.00,,,0.02,WUHU216DAVISVP2,2013-12-04 01:46:00,
2013-12-03 20:48:00,48.3,45.2,28.95,SW,214,4.0,13.0,89,0.00,,,0.02,WUHU216DAVISVP2,2013-12-04 01:48:00,
2013-12-03 20:49:00,48.3,45.2,28.96,SW,216,3.0,13.0,89,0.00,,,0.02,WUHU216DAVISVP2,2013-12-04 01:49:00,
2013-12-03 20:50:00,48.3,45.2,28.96,SW,215,0.0,13.0,89,0.00,,,0.02,WUHU216DAVISVP2,2013-12-04 01:50:00,
2013-12-03 20:51:00,48.4,45.3,28.96,South,185,2.0,13.0,89,0.00,,,0.02,WUHU216DAVISVP2,2013-12-04 01:51:00,
2013-12-03 20:53:00,48.5,45.4,28.96,SSW,197,2.0,13.0,89,0.00,,,0.02,WUHU216DAVISVP2,2013-12-04 01:53:00,
2013-12-03 20:54:00,48.5,45.4,28.96,SSW,206,3.0,13.0,89,0.00,,,0.02,WUHU216DAVISVP2,2013-12-04 01:54:00,
2013-12-03 20:55:00,48.5,45.4,28.96,SW,216,4.0,13.0,89,0.00,,,0.02,WUHU216DAVISVP2,2013-12-04 01:55:00,
2013-12-03 20:57:00,48.5,45.4,28.96,SW,235,5.0,13.0,89,0.00,,,0.02,WUHU216DAVISVP2,2013-12-04 01:57:00,
2013-12-03 20:58:00,48.5,45.4,28.96,SSW,195,0.0,13.0,89,0.00,,,0.02,WUHU216DAVISVP2,2013-12-04 01:58:00,
2013-12-03 20:59:00,48.5,45.4,28.96,SW,223,5.0,13.0,89,0.00,,,0.02,WUHU216DAVISVP2,2013-12-04 01:59:00,
2013-12-03 21:00:00,48.5,45.4,28.96,South,187,2.0,13.0,89,0.00,,,0.02,WUHU216DAVISVP2,2013-12-04 02:00:00,
2013-12-03 21:02:00,48.5,45.4,28.96,SW,217,1.0,13.0,89,0.00,,,0.02,WUHU216DAVISVP2,2013-12-04 02:02:00,
2013-12-03 21:03:00,48.5,45.4,28.96,SW,228,4.0,13.0,89,0.00,,,0.02,WUHU216DAVISVP2,2013-12-04 02:03:00,
2013-12-03 21:05:00,48.4,45.3,28.95,SSW,199,1.0,12.0,89,0.00,,,0.02,WUHU216DAVISVP2,2013-12-04 02:05:00,
2013-12-03 21:06:00,48.4,45.3,28.95,SSW,198,1.0,12.0,89,0.00,,,0.02,WUHU216DAVISVP2,2013-12-04 02:06:00,
2013-12-03 21:07:00,48.3,45.2,28.95,SSW,199,0.0,12.0,89,0.00,,,0.02,WUHU216DAVISVP2,2013-12-04 02:07:00,
2013-12-03 21:08:00,48.3,45.2,28.95,SSW,196,2.0,12.0,89,0.00,,,0.02,WUHU216DAVISVP2,2013-12-04 02:08:00,
2013-12-03 21:10:00,48.2,45.1,28.95,SSW,197,0.0,12.0,89,0.00,,,0.02,WUHU216DAVISVP2,2013-12-04 02:10:00,
2013-12-03 21:11:00,48.2,45.1,28.95,South,185,1.0,12.0,89,0.00,,,0.02,WUHU216DAVISVP2,2013-12-04 02:11:00,
2013-12-03 21:12:00,48.2,45.1,28.95,SSW,203,0.0,12.0,89,0.00,,,0.02,WUHU216DAVISVP2,2013-12-04 02:12:00,
2013-12-03 21:13:00,48.2,45.1,28.95,SSW,203,0.0,12.0,89,0.00,,,0.02,WUHU216DAVISVP2,2013-12-04 02:13:00,
2013-12-03 21:14:00,48.2,45.1,28.95,SSW,203,0.0,12.0,89,0.00,,,0.02,WUHU216DAVISVP2,2013-12-04 02:14:00,
2013-12-03 21:15:00,48.1,45.0,28.96,South,177,5.0,12.0,89,0.00,,,0.02,WUHU216DAVISVP2,2013-12-04 02:15:00,
2013-12-03 21:16:00,48.1,45.0,28.96,South,177,0.0,12.0,89,0.00,,,0.02,WUHU216DAVISVP2,2013-12-04 02:16:00,
2013-12-03 21:17:00,48.1,45.0,28.96,SW,216,0.0,12.0,89,0.00,,,0.02,WUHU216DAVISVP2,2013-12-04 02:17:00,
2013-12-03 21:18:00,48.1,45.0,28.96,South,187,0.0,12.0,89,0.00,,,0.02,WUHU216DAVISVP2,2013-12-04 02:18:00,
2013-12-03 21:19:00,48.1,45.0,28.96,South,181,4.0,12.0,89,0.00,,,0.02,WUHU216DAVISVP2,2013-12-04 02:19:00,
2013-12-03 21:20:00,48.1,45.0,28.96,South,172,1.0,12.0,89,0.00,,,0.02,WUHU216DAVISVP2,2013-12-04 02:20:00,
2013-12-03 21:21:00,48.1,45.0,28.96,South,178,11.0,12.0,89,0.00,,,0.02,WUHU216DAVISVP2,2013-12-04 02:21:00,
2013-12-03 21:22:00,48.1,45.0,28.96,SSW,204,0.0,12.0,89,0.00,,,0.02,WUHU216DAVISVP2,2013-12-04 02:22:00,
2013-12-03 21:23:00,48.1,45.0,28.96,SE,145,3.0,11.0,89,0.00,,,0.02,WUHU216DAVISVP2,2013-12-04 02:23:00,
2013-12-03 21:24:00,48.1,45.0,28.96,South,188,6.0,11.0,89,0.00,,,0.02,WUHU216DAVISVP2,2013-12-04 02:24:00,
2013-12-03 21:26:00,48.1,45.0,28.96,SW,228,6.0,11.0,89,0.00,,,0.02,WUHU216DAVISVP2,2013-12-04 02:26:00,
2013-12-03 21:27:00,48.1,45.0,28.96,SSW,197,0.0,11.0,89,0.00,,,0.02,WUHU216DAVISVP2,2013-12-04 02:27:00,
2013-12-03 21:28:00,48.1,45.0,28.96,South,183,0.0,11.0,89,0.00,,,0.02,WUHU216DAVISVP2,2013-12-04 02:28:00,
2013-12-03 21:30:00,48.1,45.0,28.96,SSE,164,3.0,11.0,89,0.00,,,0.02,WUHU216DAVISVP2,2013-12-04 02:30:00,
2013-12-03 21:31:00,48.0,44.9,28.96,South,189,0.0,11.0,89,0.00,,,0.02,WUHU216DAVISVP2,2013-12-04 02:31:00,
2013-12-03 21:32:00,48.0,44.9,28.96,South,179,5.0,11.0,89,0.00,,,0.02,WUHU216DAVISVP2,2013-12-04 02:32:00,
2013-12-03 21:34:00,48.0,44.9,28.96,SW,214,2.0,11.0,89,0.00,,,0.02,WUHU216DAVISVP2,2013-12-04 02:34:00,
2013-12-03 21:35:00,48.0,44.9,28.96,SSW,197,3.0,11.0,89,0.00,,,0.02,WUHU216DAVISVP2,2013-12-04 02:35:00,
2013-12-03 21:36:00,47.9,44.8,28.96,SSW,192,0.0,11.0,89,0.00,,,0.02,WUHU216DAVISVP2,2013-12-04 02:36:00,
2013-12-03 21:38:00,47.9,45.1,28.96,South,188,0.0,11.0,90,0.00,,,0.02,WUHU216DAVISVP2,2013-12-04 02:38:00,
2013-12-03 21:39:00,47.9,45.1,28.96,South,179,2.0,11.0,90,0.00,,,0.02,WUHU216DAVISVP2,2013-12-04 02:39:00,
2013-12-03 21:40:00,47.9,44.8,28.96,South,173,5.0,11.0,89,0.00,,,0.02,WUHU216DAVISVP2,2013-12-04 02:40:00,
2013-12-03 21:41:00,47.9,44.8,28.96,SSW,208,0.0,10.0,89,0.00,,,0.02,WUHU216DAVISVP2,2013-12-04 02:41:00,
2013-12-03 21:43:00,47.9,44.8,28.96,SSW,210,2.0,10.0,89,0.00,,,0.02,WUHU216DAVISVP2,2013-12-04 02:43:00,
2013-12-03 21:44:00,47.9,45.1,28.96,SSE,165,6.0,10.0,90,0.00,,,0.02,WUHU216DAVISVP2,2013-12-04 02:44:00,
2013-12-03 21:46:00,47.9,45.1,28.96,SSW,205,0.0,10.0,90,0.00,,,0.02,WUHU216DAVISVP2,2013-12-04 02:46:00,
2013-12-03 21:48:00,47.9,45.1,28.96,South,190,1.0,10.0,90,0.00,,,0.02,WUHU216DAVISVP2,2013-12-04 02:48:00,
2013-12-03 21:49:00,47.9,45.1,28.96,SSW,201,0.0,10.0,90,0.00,,,0.02,WUHU216DAVISVP2,2013-12-04 02:49:00,
2013-12-03 21:50:00,47.9,45.1,28.96,SSW,201,1.0,10.0,90,0.00,,,0.02,WUHU216DAVISVP2,2013-12-04 02:50:00,
2013-12-03 21:51:00,47.9,45.1,28.96,South,182,0.0,8.0,90,0.00,,,0.02,WUHU216DAVISVP2,2013-12-04 02:51:00,
2013-12-03 21:52:00,47.9,45.1,28.96,South,181,5.0,8.0,90,0.00,,,0.02,WUHU216DAVISVP2,2013-12-04 02:52:00,
2013-12-03 21:53:00,47.9,45.1,28.96,South,178,5.0,8.0,90,0.00,,,0.02,WUHU216DAVISVP2,2013-12-04 02:53:00,
2013-12-03 21:55:00,47.9,45.1,28.96,SSW,209,0.0,8.0,90,0.00,,,0.02,WUHU216DAVISVP2,2013-12-04 02:55:00,
2013-12-03 21:56:00,47.9,45.1,28.97,SSW,212,1.0,8.0,90,0.00,,,0.02,WUHU216DAVISVP2,2013-12-04 02:56:00,
2013-12-03 21:57:00,47.9,45.1,28.97,South,185,5.0,8.0,90,0.00,,,0.02,WUHU216DAVISVP2,2013-12-04 02:57:00,
2013-12-03 21:58:00,47.9,45.1,28.97,SW,214,2.0,8.0,90,0.00,,,0.02,WUHU216DAVISVP2,2013-12-04 02:58:00,
2013-12-03 22:00:00,47.9,45.1,28.97,SSW,207,4.0,8.0,90,0.00,,,0.02,WUHU216DAVISVP2,2013-12-04 03:00:00,
2013-12-03 22:01:00,47.9,45.1,28.97,South,179,2.0,8.0,90,0.00,,,0.02,WUHU216DAVISVP2,2013-12-04 03:01:00,
2013-12-03 22:02:00,47.9,45.1,28.97,South,185,0.0,8.0,90,0.00,,,0.02,WUHU216DAVISVP2,2013-12-04 03:02:00,
2013-12-03 22:03:00,47.9,45.1,28.97,SW,218,1.0,8.0,90,0.00,,,0.02,WUHU216DAVISVP2,2013-12-04 03:03:00,
2013-12-03 22:05:00,47.9,45.1,28.97,SSW,204,0.0,8.0,90,0.00,,,0.02,WUHU216DAVISVP2,2013-12-04 03:05:00,
2013-12-03 22:06:00,47.9,45.1,28.97,South,185,2.0,8.0,90,0.00,,,0.02,WUHU216DAVISVP2,2013-12-04 03:06:00,
2013-12-03 22:07:00,47.9,45.1,28.97,South,185,0.0,8.0,90,0.00,,,0.02,WUHU216DAVISVP2,2013-12-04 03:07:00,
2013-12-03 22:08:00,47.9,45.1,28.97,South,185,1.0,8.0,90,0.00,,,0.02,WUHU216DAVISVP2,2013-12-04 03:08:00,
2013-12-03 22:10:00,47.9,45.1,28.98,SSW,199,0.0,8.0,90,0.00,,,0.02,WUHU216DAVISVP2,2013-12-04 03:10:00,
2013-12-03 22:12:00,47.9,45.1,28.98,SSW,199,0.0,7.0,90,0.00,,,0.02,WUHU216DAVISVP2,2013-12-04 03:12:00,
2013-12-03 22:13:00,47.9,45.1,28.98,South,184,5.0,7.0,90,0.00,,,0.02,WUHU216DAVISVP2,2013-12-04 03:13:00,
2013-12-03 22:16:00,48.0,45.2,28.98,SSW,194,0.0,7.0,90,0.00,,,0.02,WUHU216DAVISVP2,2013-12-04 03:16:00,
2013-12-03 22:17:00,48.0,45.2,28.98,SSW,206,0.0,7.0,90,0.00,,,0.02,WUHU216DAVISVP2,2013-12-04 03:17:00,
2013-12-03 22:19:00,48.0,45.2,28.98,SSW,210,0.0,7.0,90,0.00,,,0.02,WUHU216DAVISVP2,2013-12-04 03:19:00,
2013-12-03 22:21:00,48.0,44.9,28.98,South,187,2.0,7.0,89,0.00,,,0.02,WUHU216DAVISVP2,2013-12-04 03:21:00,
2013-12-03 22:22:00,47.9,45.1,28.98,South,172,4.0,7.0,90,0.00,,,0.02,WUHU216DAVISVP2,2013-12-04 03:22:00,
2013-12-03 22:23:00,48.0,45.2,28.98,South,174,2.0,7.0,90,0.00,,,0.02,WUHU216DAVISVP2,2013-12-04 03:23:00,
2013-12-03 22:24:00,47.9,44.8,28.98,SSW,199,2.0,7.0,89,0.00,,,0.02,WUHU216DAVISVP2,2013-12-04 03:24:00,
2013-12-03 22:26:00,47.9,45.1,28.98,South,170,3.0,7.0,90,0.00,,,0.02,WUHU216DAVISVP2,2013-12-04 03:26:00,
2013-12-03 22:27:00,47.9,45.1,28.98,South,171,4.0,7.0,90,0.00,,,0.02,WUHU216DAVISVP2,2013-12-04 03:27:00,
2013-12-03 22:28:00,47.9,45.1,28.98,South,172,5.0,7.0,90,0.00,,,0.02,WUHU216DAVISVP2,2013-12-04 03:28:00,
2013-12-03 22:29:00,47.9,45.1,28.98,South,172,1.0,7.0,90,0.00,,,0.02,WUHU216DAVISVP2,2013-12-04 03:29:00,
2013-12-03 22:31:00,47.8,45.0,28.98,SSE,165,5.0,7.0,90,0.00,,,0.02,WUHU216DAVISVP2,2013-12-04 03:31:00,
2013-12-03 22:32:00,47.8,45.0,28.97,SSW,193,3.0,7.0,90,0.00,,,0.02,WUHU216DAVISVP2,2013-12-04 03:32:00,
2013-12-03 22:33:00,47.8,45.0,28.97,South,181,4.0,7.0,90,0.00,,,0.02,WUHU216DAVISVP2,2013-12-04 03:33:00,
2013-12-03 22:34:00,47.8,45.0,28.98,South,175,5.0,7.0,90,0.00,,,0.02,WUHU216DAVISVP2,2013-12-04 03:34:00,
2013-12-03 22:36:00,47.8,45.0,28.97,SSW,197,0.0,7.0,90,0.00,,,0.02,WUHU216DAVISVP2,2013-12-04 03:36:00,
2013-12-03 22:37:00,47.8,45.0,28.97,SSW,197,0.0,7.0,90,0.00,,,0.02,WUHU216DAVISVP2,2013-12-04 03:37:00,
2013-12-03 22:38:00,47.8,45.0,28.97,South,172,5.0,7.0,90,0.00,,,0.02,WUHU216DAVISVP2,2013-12-04 03:38:00,
2013-12-03 22:39:00,47.8,45.0,28.97,South,170,1.0,7.0,90,0.00,,,0.02,WUHU216DAVISVP2,2013-12-04 03:39:00,
2013-12-03 22:41:00,47.8,45.0,28.97,SSE,164,0.0,7.0,90,0.00,,,0.02,WUHU216DAVISVP2,2013-12-04 03:41:00,
2013-12-03 22:42:00,47.8,45.0,28.97,SSE,164,0.0,7.0,90,0.00,,,0.02,WUHU216DAVISVP2,2013-12-04 03:42:00,
2013-12-03 22:43:00,47.8,45.0,28.97,SE,145,0.0,7.0,90,0.00,,,0.02,WUHU216DAVISVP2,2013-12-04 03:43:00,
2013-12-03 22:44:00,47.8,45.0,28.97,SSE,154,2.0,7.0,90,0.00,,,0.02,WUHU216DAVISVP2,2013-12-04 03:44:00,
2013-12-03 22:47:00,47.7,44.9,28.97,South,170,4.0,8.0,90,0.00,,,0.02,WUHU216DAVISVP2,2013-12-04 03:47:00,
2013-12-03 22:48:00,47.7,44.9,28.97,SSE,160,5.0,8.0,90,0.00,,,0.02,WUHU216DAVISVP2,2013-12-04 03:48:00,
2013-12-03 22:49:00,47.7,44.9,28.97,SSE,161,2.0,8.0,90,0.00,,,0.02,WUHU216DAVISVP2,2013-12-04 03:49:00,
2013-12-03 22:50:00,47.7,44.9,28.97,South,171,6.0,8.0,90,0.00,,,0.02,WUHU216DAVISVP2,2013-12-04 03:50:00,
2013-12-03 22:52:00,47.7,44.9,28.97,SE,139,0.0,8.0,90,0.00,,,0.02,WUHU216DAVISVP2,2013-12-04 03:52:00,
2013-12-03 22:53:00,47.7,44.9,28.97,SE,139,0.0,8.0,90,0.00,,,0.02,WUHU216DAVISVP2,2013-12-04 03:53:00,
2013-12-03 22:54:00,47.7,44.9,28.97,SE,139,2.0,8.0,90,0.00,,,0.02,WUHU216DAVISVP2,2013-12-04 03:54:00,
2013-12-03 22:55:00,47.7,44.9,28.97,SSE,167,2.0,8.0,90,0.00,,,0.02,WUHU216DAVISVP2,2013-12-04 03:55:00,
2013-12-03 22:57:00,47.7,44.9,28.97,South,173,4.0,8.0,90,0.00,,,0.02,WUHU216DAVISVP2,2013-12-04 03:57:00,
2013-12-03 22:58:00,47.7,44.9,28.97,South,173,0.0,8.0,90,0.00,,,0.02,WUHU216DAVISVP2,2013-12-04 03:58:00,
2013-12-03 23:00:00,47.7,44.9,28.98,South,177,0.0,8.0,90,0.00,,,0.02,WUHU216DAVISVP2,2013-12-04 04:00:00,
2013-12-03 23:03:00,47.6,44.8,28.98,South,179,1.0,8.0,90,0.00,,,0.02,WUHU216DAVISVP2,2013-12-04 04:03:00,
2013-12-03 23:04:00,47.6,44.8,28.98,South,175,0.0,8.0,90,0.00,,,0.02,WUHU216DAVISVP2,2013-12-04 04:04:00,
2013-12-03 23:05:00,47.6,44.8,28.98,South,175,2.0,8.0,90,0.00,,,0.02,WUHU216DAVISVP2,2013-12-04 04:05:00,
2013-12-03 23:08:00,47.6,44.8,28.98,SSE,165,2.0,8.0,90,0.00,,,0.02,WUHU216DAVISVP2,2013-12-04 04:08:00,
2013-12-03 23:09:00,47.6,44.8,28.98,SSE,165,2.0,8.0,90,0.00,,,0.02,WUHU216DAVISVP2,2013-12-04 04:09:00,
2013-12-03 23:10:00,47.6,44.8,28.98,SSE,161,0.0,8.0,90,0.00,,,0.02,WUHU216DAVISVP2,2013-12-04 04:10:00,
2013-12-03 23:13:00,47.6,44.8,28.98,SSE,161,0.0,8.0,90,0.00,,,0.02,WUHU216DAVISVP2,2013-12-04 04:13:00,
2013-12-03 23:14:00,47.5,44.7,28.98,SSE,160,0.0,8.0,90,0.00,,,0.02,WUHU216DAVISVP2,2013-12-04 04:14:00,
2013-12-03 23:15:00,47.5,44.7,28.98,SSE,161,0.0,8.0,90,0.00,,,0.02,WUHU216DAVISVP2,2013-12-04 04:15:00,
2013-12-03 23:16:00,47.5,44.7,28.98,SSE,161,0.0,8.0,90,0.00,,,0.02,WUHU216DAVISVP2,2013-12-04 04:16:00,
2013-12-03 23:18:00,47.5,44.7,28.98,South,183,0.0,8.0,90,0.00,,,0.02,WUHU216DAVISVP2,2013-12-04 04:18:00,
2013-12-03 23:19:00,47.5,44.7,28.98,South,183,2.0,8.0,90,0.00,,,0.02,WUHU216DAVISVP2,2013-12-04 04:19:00,
2013-12-03 23:20:00,47.6,44.8,28.98,SSE,168,0.0,8.0,90,0.00,,,0.02,WUHU216DAVISVP2,2013-12-04 04:20:00,
2013-12-03 23:21:00,47.5,44.7,28.98,SSE,168,1.0,8.0,90,0.00,,,0.02,WUHU216DAVISVP2,2013-12-04 04:21:00,
2013-12-03 23:23:00,47.5,44.7,28.98,SSE,167,0.0,8.0,90,0.00,,,0.02,WUHU216DAVISVP2,2013-12-04 04:23:00,
2013-12-03 23:24:00,47.5,44.7,28.98,South,172,0.0,8.0,90,0.00,,,0.02,WUHU216DAVISVP2,2013-12-04 04:24:00,
2013-12-03 23:25:00,47.5,44.7,28.98,South,172,5.0,8.0,90,0.00,,,0.02,WUHU216DAVISVP2,2013-12-04 04:25:00,
2013-12-03 23:26:00,47.5,44.7,28.98,SSE,165,3.0,8.0,90,0.00,,,0.02,WUHU216DAVISVP2,2013-12-04 04:26:00,
2013-12-03 23:28:00,47.5,44.7,28.98,SSE,151,0.0,6.0,90,0.00,,,0.02,WUHU216DAVISVP2,2013-12-04 04:28:00,
2013-12-03 23:29:00,47.5,44.7,28.98,SSE,151,0.0,6.0,90,0.00,,,0.02,WUHU216DAVISVP2,2013-12-04 04:29:00,
2013-12-03 23:30:00,47.5,44.7,28.98,SSE,151,0.0,6.0,90,0.00,,,0.02,WUHU216DAVISVP2,2013-12-04 04:30:00,
2013-12-03 23:31:00,47.5,44.7,28.98,SSE,151,0.0,6.0,90,0.00,,,0.02,WUHU216DAVISVP2,2013-12-04 04:31:00,
2013-12-03 23:32:00,47.5,44.7,28.98,SSE,158,0.0,6.0,90,0.00,,,0.02,WUHU216DAVISVP2,2013-12-04 04:32:00,
2013-12-03 23:34:00,47.5,44.7,28.98,SSE,158,0.0,6.0,90,0.00,,,0.02,WUHU216DAVISVP2,2013-12-04 04:34:00,
2013-12-03 23:36:00,47.5,44.7,28.98,SSE,158,0.0,6.0,90,0.00,,,0.02,WUHU216DAVISVP2,2013-12-04 04:36:00,
2013-12-03 23:38:00,47.5,44.7,28.98,SSE,158,0.0,6.0,90,0.00,,,0.02,WUHU216DAVISVP2,2013-12-04 04:38:00,
2013-12-03 23:39:00,47.5,44.7,28.98,SE,138,2.0,6.0,90,0.00,,,0.02,WUHU216DAVISVP2,2013-12-04 04:39:00,
2013-12-03 23:40:00,47.5,44.7,28.98,SE,145,0.0,6.0,90,0.00,,,0.02,WUHU216DAVISVP2,2013-12-04 04:40:00,
2013-12-03 23:41:00,47.5,44.7,28.98,SE,145,0.0,6.0,90,0.00,,,0.02,WUHU216DAVISVP2,2013-12-04 04:41:00,
2013-12-03 23:42:00,47.5,44.7,28.98,SE,145,0.0,6.0,90,0.00,,,0.02,WUHU216DAVISVP2,2013-12-04 04:42:00,
2013-12-03 23:43:00,47.5,44.7,28.98,SE,145,0.0,6.0,90,0.00,,,0.02,WUHU216DAVISVP2,2013-12-04 04:43:00,
2013-12-03 23:44:00,47.4,44.6,28.98,SE,145,0.0,6.0,90,0.00,,,0.02,WUHU216DAVISVP2,2013-12-04 04:44:00,
2013-12-03 23:45:00,47.4,44.6,28.97,SE,145,5.0,6.0,90,0.00,,,0.02,WUHU216DAVISVP2,2013-12-04 04:45:00,
2013-12-03 23:46:00,47.4,44.6,28.97,SE,145,5.0,5.0,90,0.00,,,0.02,WUHU216DAVISVP2,2013-12-04 04:46:00,
2013-12-03 23:47:00,47.4,44.6,28.97,SE,130,1.0,6.0,90,0.00,,,0.02,WUHU216DAVISVP2,2013-12-04 04:47:00,
2013-12-03 23:48:00,47.4,44.6,28.97,SSE,154,7.0,7.0,90,0.00,,,0.02,WUHU216DAVISVP2,2013-12-04 04:48:00,
2013-12-03 23:50:00,47.4,44.6,28.97,SSE,154,0.0,7.0,90,0.00,,,0.02,WUHU216DAVISVP2,2013-12-04 04:50:00,
2013-12-03 23:51:00,47.4,44.6,28.97,SSE,154,2.0,7.0,90,0.00,,,0.02,WUHU216DAVISVP2,2013-12-04 04:51:00,
2013-12-03 23:52:00,47.3,44.5,28.97,SE,131,0.0,7.0,90,0.00,,,0.02,WUHU216DAVISVP2,2013-12-04 04:52:00,
2013-12-03 23:54:00,47.3,44.5,28.97,SE,131,2.0,7.0,90,0.00,,,0.02,WUHU216DAVISVP2,2013-12-04 04:54:00,
2013-12-03 23:55:00,47.3,44.5,28.97,SE,137,1.0,7.0,90,0.00,,,0.02,WUHU216DAVISVP2,2013-12-04 04:55:00,
2013-12-03 23:56:00,47.3,44.5,28.97,SSE,159,2.0,7.0,90,0.00,,,0.02,WUHU216DAVISVP2,2013-12-04 04:56:00,
2013-12-03 23:57:00,47.3,44.5,28.97,SSE,155,1.0,7.0,90,0.00,,,0.02,WUHU216DAVISVP2,2013-12-04 04:57:00,
2013-12-03 23:59:00,47.2,44.4,28.97,SSE,148,0.0,7.0,90,0.00,,,0.02,WUHU216DAVISVP2,2013-12-04 04:59:00,